Time,TemperatureF,DewpointF,PressureIn,WindDirection,WindDirectionDegrees,WindSpeedMPH,WindSpeedGustMPH,Humidity,HourlyPrecipIn,Conditions,Clouds,dailyrainin,SoftwareType,DateUTC
2013-07-06 00:00:00,77.9,72.3,30.01,West,267,0.0,0.0,83,0.00,,---,0.00,VWS V14.01,2013-07-06 04:00:00,
2013-07-06 00:14:00,78.1,72.2,30.02,West,270,0.0,1.0,82,0.00,,---,0.00,VWS V14.01,2013-07-06 04:14:00,
2013-07-06 00:16:00,78.0,72.1,30.02,West,265,0.0,1.0,82,0.00,,---,0.00,VWS V14.01,2013-07-06 04:16:00,
2013-07-06 00:18:00,78.0,72.1,30.02,WSW,247,0.0,1.0,82,0.00,,---,0.00,VWS V14.01,2013-07-06 04:18:00,
2013-07-06 00:20:00,78.0,72.1,30.02,WSW,248,0.0,1.0,82,0.00,,---,0.00,VWS V14.01,2013-07-06 04:20:00,
2013-07-06 00:21:00,78.0,72.1,30.02,WSW,247,0.0,1.0,82,0.00,,---,0.00,VWS V14.01,2013-07-06 04:21:00,
2013-07-06 00:22:00,78.0,72.1,30.02,WSW,248,0.0,1.0,82,0.00,,---,0.00,VWS V14.01,2013-07-06 04:22:00,
2013-07-06 00:23:00,78.0,72.1,30.02,WSW,248,0.0,1.0,82,0.00,,---,0.00,VWS V14.01,2013-07-06 04:23:00,
2013-07-06 00:25:00,77.9,72.0,30.02,WSW,248,0.0,1.0,82,0.00,,---,0.00,VWS V14.01,2013-07-06 04:25:00,
2013-07-06 00:26:00,77.9,72.0,30.02,WSW,248,0.0,1.0,82,0.00,,---,0.00,VWS V14.01,2013-07-06 04:26:00,
2013-07-06 00:27:00,77.9,72.0,30.02,WSW,248,0.0,1.0,82,0.00,,---,0.00,VWS V14.01,2013-07-06 04:27:00,
2013-07-06 00:29:00,77.8,71.9,30.02,West,260,0.0,0.0,82,0.00,,---,0.00,VWS V14.01,2013-07-06 04:29:00,
2013-07-06 00:30:00,77.9,72.3,30.02,West,267,0.0,0.0,83,0.00,,---,0.00,VWS V14.01,2013-07-06 04:30:00,
2013-07-06 00:31:00,77.9,72.3,30.02,West,274,0.0,0.0,83,0.00,,---,0.00,VWS V14.01,2013-07-06 04:31:00,
2013-07-06 00:34:00,78.0,72.1,30.02,West,274,0.0,0.0,82,0.00,,---,0.00,VWS V14.01,2013-07-06 04:34:00,
2013-07-06 00:35:00,78.0,72.4,30.01,WSW,238,0.0,0.0,83,0.00,,---,0.00,VWS V14.01,2013-07-06 04:35:00,
2013-07-06 00:36:00,78.0,72.4,30.01,SW,235,0.0,0.0,83,0.00,,---,0.00,VWS V14.01,2013-07-06 04:36:00,
2013-07-06 00:38:00,78.0,72.4,30.01,West,276,0.0,0.0,83,0.00,,---,0.00,VWS V14.01,2013-07-06 04:38:00,
2013-07-06 00:39:00,78.0,72.4,30.01,West,276,0.0,0.0,83,0.00,,---,0.00,VWS V14.01,2013-07-06 04:39:00,
2013-07-06 00:40:00,78.0,72.4,30.01,West,275,0.0,0.0,83,0.00,,---,0.00,VWS V14.01,2013-07-06 04:40:00,
2013-07-06 00:41:00,77.9,72.3,30.01,West,276,0.0,0.0,83,0.00,,---,0.00,VWS V14.01,2013-07-06 04:41:00,
2013-07-06 00:42:00,77.9,72.3,30.01,West,262,0.0,0.0,83,0.00,,---,0.00,VWS V14.01,2013-07-06 04:42:00,
2013-07-06 00:43:00,77.9,72.3,30.01,West,263,0.0,0.0,83,0.00,,---,0.00,VWS V14.01,2013-07-06 04:43:00,
2013-07-06 00:44:00,77.8,72.2,30.01,West,263,0.0,0.0,83,0.00,,---,0.00,VWS V14.01,2013-07-06 04:44:00,
2013-07-06 00:47:00,77.7,72.5,30.01,West,264,0.0,0.0,84,0.00,,---,0.00,VWS V14.01,2013-07-06 04:47:00,
2013-07-06 00:48:00,77.7,72.5,30.02,West,264,0.0,0.0,84,0.00,,---,0.00,VWS V14.01,2013-07-06 04:48:00,
2013-07-06 00:49:00,77.6,72.4,30.02,West,264,0.0,0.0,84,0.00,,---,0.00,VWS V14.01,2013-07-06 04:49:00,
2013-07-06 00:53:00,77.5,72.3,30.02,WSW,257,0.0,0.0,84,0.00,,---,0.00,VWS V14.01,2013-07-06 04:53:00,
2013-07-06 00:54:00,77.4,72.2,30.02,WSW,257,0.0,0.0,84,0.00,,---,0.00,VWS V14.01,2013-07-06 04:54:00,
2013-07-06 00:58:00,77.3,72.4,30.01,WSW,255,0.0,0.0,85,0.00,,---,0.00,VWS V14.01,2013-07-06 04:58:00,
2013-07-06 00:59:00,77.3,72.4,30.01,WSW,255,0.0,0.0,85,0.00,,---,0.00,VWS V14.01,2013-07-06 04:59:00,
2013-07-06 01:00:00,77.3,72.4,30.01,WSW,255,0.0,0.0,85,0.00,,---,0.00,VWS V14.01,2013-07-06 05:00:00,
2013-07-06 01:01:00,77.3,72.4,30.01,WSW,255,0.0,0.0,85,0.00,,---,0.00,VWS V14.01,2013-07-06 05:01:00,
2013-07-06 01:04:00,77.3,72.4,30.01,WSW,257,0.0,0.0,85,0.00,,---,0.00,VWS V14.01,2013-07-06 05:04:00,
2013-07-06 01:05:00,77.3,72.4,30.01,WSW,257,0.0,0.0,85,0.00,,---,0.00,VWS V14.01,2013-07-06 05:05:00,
2013-07-06 01:06:00,77.3,72.1,30.01,WSW,258,0.0,0.0,84,0.00,,---,0.00,VWS V14.01,2013-07-06 05:06:00,
2013-07-06 01:10:00,77.2,72.3,30.01,West,259,0.0,0.0,85,0.00,,---,0.00,VWS V14.01,2013-07-06 05:10:00,
2013-07-06 01:11:00,77.1,72.2,30.01,WSW,257,0.0,0.0,85,0.00,,---,0.00,VWS V14.01,2013-07-06 05:11:00,
2013-07-06 01:12:00,77.1,72.2,30.01,WSW,258,0.0,0.0,85,0.00,,---,0.00,VWS V14.01,2013-07-06 05:12:00,
2013-07-06 01:16:00,76.7,72.2,30.01,West,259,0.0,0.0,86,0.00,,---,0.00,VWS V14.01,2013-07-06 05:16:00,
2013-07-06 01:17:00,76.6,72.1,30.01,West,259,0.0,0.0,86,0.00,,---,0.00,VWS V14.01,2013-07-06 05:17:00,
2013-07-06 01:21:00,76.4,71.9,30.01,WSW,253,0.0,0.0,86,0.00,,---,0.00,VWS V14.01,2013-07-06 05:21:00,
2013-07-06 01:22:00,76.4,71.9,30.01,WSW,253,0.0,0.0,86,0.00,,---,0.00,VWS V14.01,2013-07-06 05:22:00,
2013-07-06 01:23:00,76.4,71.9,30.01,WSW,253,0.0,0.0,86,0.00,,---,0.00,VWS V14.01,2013-07-06 05:23:00,
2013-07-06 01:26:00,76.4,71.9,30.01,WSW,257,0.0,0.0,86,0.00,,---,0.00,VWS V14.01,2013-07-06 05:26:00,
2013-07-06 01:27:00,76.4,71.9,30.01,WSW,257,0.0,0.0,86,0.00,,---,0.00,VWS V14.01,2013-07-06 05:27:00,
2013-07-06 01:28:00,76.4,71.9,30.01,WSW,257,0.0,0.0,86,0.00,,---,0.00,VWS V14.01,2013-07-06 05:28:00,
2013-07-06 01:30:00,76.5,71.7,30.01,WSW,255,0.0,0.0,85,0.00,,---,0.00,VWS V14.01,2013-07-06 05:30:00,
2013-07-06 01:32:00,76.6,71.8,30.01,WSW,257,0.0,0.0,85,0.00,,---,0.00,VWS V14.01,2013-07-06 05:32:00,
2013-07-06 01:33:00,76.6,71.8,30.01,WSW,257,0.0,0.0,85,0.00,,---,0.00,VWS V14.01,2013-07-06 05:33:00,
2013-07-06 01:35:00,76.7,71.9,30.01,WSW,257,0.0,0.0,85,0.00,,---,0.00,VWS V14.01,2013-07-06 05:35:00,
2013-07-06 01:37:00,76.8,71.9,30.01,West,260,0.0,0.0,85,0.00,,---,0.00,VWS V14.01,2013-07-06 05:37:00,
2013-07-06 01:38:00,76.8,71.9,30.01,WSW,257,0.0,0.0,85,0.00,,---,0.00,VWS V14.01,2013-07-06 05:38:00,
2013-07-06 01:40:00,76.8,71.9,30.01,WSW,256,0.0,0.0,85,0.00,,---,0.00,VWS V14.01,2013-07-06 05:40:00,
2013-07-06 01:43:00,76.9,72.1,30.01,West,259,0.0,0.0,85,0.00,,---,0.00,VWS V14.01,2013-07-06 05:43:00,
2013-07-06 01:44:00,76.9,71.7,30.01,West,263,0.0,0.0,84,0.00,,---,0.00,VWS V14.01,2013-07-06 05:44:00,
2013-07-06 01:46:00,76.9,72.1,30.01,West,262,0.0,0.0,85,0.00,,---,0.00,VWS V14.01,2013-07-06 05:46:00,
2013-07-06 01:48:00,76.8,71.6,30.01,West,259,0.0,0.0,84,0.00,,---,0.00,VWS V14.01,2013-07-06 05:48:00,
2013-07-06 01:49:00,76.8,71.9,30.01,West,259,0.0,0.0,85,0.00,,---,0.00,VWS V14.01,2013-07-06 05:49:00,
2013-07-06 01:50:00,76.8,71.9,30.01,West,262,0.0,0.0,85,0.00,,---,0.00,VWS V14.01,2013-07-06 05:50:00,
2013-07-06 01:51:00,76.8,71.6,30.01,West,259,0.0,0.0,84,0.00,,---,0.00,VWS V14.01,2013-07-06 05:51:00,
2013-07-06 01:53:00,76.8,71.9,30.01,West,260,0.0,0.0,85,0.00,,---,0.00,VWS V14.01,2013-07-06 05:53:00,
2013-07-06 01:54:00,76.8,71.9,30.01,West,262,0.0,0.0,85,0.00,,---,0.00,VWS V14.01,2013-07-06 05:54:00,
2013-07-06 01:56:00,76.8,71.6,30.01,West,259,0.0,0.0,84,0.00,,---,0.00,VWS V14.01,2013-07-06 05:56:00,
2013-07-06 01:59:00,76.9,72.1,30.01,West,260,0.0,0.0,85,0.00,,---,0.00,VWS V14.01,2013-07-06 05:59:00,
2013-07-06 02:00:00,76.9,72.1,30.01,West,260,0.0,0.0,85,0.00,,---,0.00,VWS V14.01,2013-07-06 06:00:00,
2013-07-06 02:01:00,76.9,72.1,30.01,West,259,0.0,0.0,85,0.00,,---,0.00,VWS V14.01,2013-07-06 06:01:00,
2013-07-06 02:05:00,76.9,71.7,30.01,WSW,257,0.0,0.0,84,0.00,,---,0.00,VWS V14.01,2013-07-06 06:05:00,
2013-07-06 02:06:00,76.9,71.7,30.01,WSW,257,0.0,0.0,84,0.00,,---,0.00,VWS V14.01,2013-07-06 06:06:00,
2013-07-06 02:07:00,76.9,71.7,30.00,WSW,257,0.0,0.0,84,0.00,,---,0.00,VWS V14.01,2013-07-06 06:07:00,
2013-07-06 02:08:00,76.9,71.7,30.01,West,259,0.0,0.0,84,0.00,,---,0.00,VWS V14.01,2013-07-06 06:08:00,
2013-07-06 02:10:00,76.9,71.7,30.01,WSW,258,0.0,0.0,84,0.00,,---,0.00,VWS V14.01,2013-07-06 06:10:00,
2013-07-06 02:12:00,76.9,71.7,30.00,WSW,258,0.0,0.0,84,0.00,,---,0.00,VWS V14.01,2013-07-06 06:12:00,
2013-07-06 02:13:00,76.9,71.7,30.00,WSW,258,0.0,0.0,84,0.00,,---,0.00,VWS V14.01,2013-07-06 06:13:00,
2013-07-06 02:14:00,76.9,71.7,30.00,West,259,0.0,0.0,84,0.00,,---,0.00,VWS V14.01,2013-07-06 06:14:00,
2013-07-06 02:17:00,76.9,71.7,30.00,West,259,0.0,0.0,84,0.00,,---,0.00,VWS V14.01,2013-07-06 06:17:00,
2013-07-06 02:18:00,76.9,71.7,30.00,WSW,258,0.0,0.0,84,0.00,,---,0.00,VWS V14.01,2013-07-06 06:18:00,
2013-07-06 02:20:00,76.8,71.6,30.00,West,259,0.0,0.0,84,0.00,,---,0.00,VWS V14.01,2013-07-06 06:20:00,
2013-07-06 02:22:00,76.8,71.6,29.99,West,259,0.0,0.0,84,0.00,,---,0.00,VWS V14.01,2013-07-06 06:22:00,
2013-07-06 02:23:00,76.8,71.6,30.00,West,260,0.0,0.0,84,0.00,,---,0.00,VWS V14.01,2013-07-06 06:23:00,
2013-07-06 02:25:00,76.8,71.6,30.00,West,260,0.0,0.0,84,0.00,,---,0.00,VWS V14.01,2013-07-06 06:25:00,
2013-07-06 02:27:00,76.8,71.6,30.00,West,260,0.0,0.0,84,0.00,,---,0.00,VWS V14.01,2013-07-06 06:27:00,
2013-07-06 02:28:00,76.8,71.6,30.00,West,260,0.0,0.0,84,0.00,,---,0.00,VWS V14.01,2013-07-06 06:28:00,
2013-07-06 02:29:00,76.8,71.6,29.99,West,260,0.0,0.0,84,0.00,,---,0.00,VWS V14.01,2013-07-06 06:29:00,
2013-07-06 02:32:00,76.8,71.6,29.99,West,260,0.0,0.0,84,0.00,,---,0.00,VWS V14.01,2013-07-06 06:32:00,
2013-07-06 02:33:00,76.8,71.6,30.00,West,260,0.0,0.0,84,0.00,,---,0.00,VWS V14.01,2013-07-06 06:33:00,
2013-07-06 02:34:00,76.8,71.6,30.00,West,260,0.0,0.0,84,0.00,,---,0.00,VWS V14.01,2013-07-06 06:34:00,
2013-07-06 02:35:00,76.7,71.5,30.00,West,259,0.0,0.0,84,0.00,,---,0.00,VWS V14.01,2013-07-06 06:35:00,
2013-07-06 02:37:00,76.7,71.5,30.00,West,262,0.0,0.0,84,0.00,,---,0.00,VWS V14.01,2013-07-06 06:37:00,
2013-07-06 02:38:00,76.7,71.5,30.00,West,262,0.0,0.0,84,0.00,,---,0.00,VWS V14.01,2013-07-06 06:38:00,
2013-07-06 02:39:00,76.6,71.4,30.00,West,262,0.0,0.0,84,0.00,,---,0.00,VWS V14.01,2013-07-06 06:39:00,
2013-07-06 02:41:00,76.6,71.4,30.00,West,262,0.0,0.0,84,0.00,,---,0.00,VWS V14.01,2013-07-06 06:41:00,
2013-07-06 02:43:00,76.6,71.4,30.00,West,262,0.0,0.0,84,0.00,,---,0.00,VWS V14.01,2013-07-06 06:43:00,
2013-07-06 02:44:00,76.6,71.4,30.00,West,262,0.0,0.0,84,0.00,,---,0.00,VWS V14.01,2013-07-06 06:44:00,
2013-07-06 02:47:00,76.6,71.8,30.00,West,260,0.0,0.0,85,0.00,,---,0.00,VWS V14.01,2013-07-06 06:47:00,
2013-07-06 02:49:00,76.4,71.9,30.01,West,260,0.0,0.0,86,0.00,,---,0.00,VWS V14.01,2013-07-06 06:49:00,
2013-07-06 02:50:00,76.4,71.9,30.01,West,260,0.0,0.0,86,0.00,,---,0.00,VWS V14.01,2013-07-06 06:50:00,
2013-07-06 02:52:00,76.2,71.7,30.01,West,264,0.0,0.0,86,0.00,,---,0.00,VWS V14.01,2013-07-06 06:52:00,
2013-07-06 02:55:00,76.2,71.7,30.01,West,266,0.0,0.0,86,0.00,,---,0.00,VWS V14.01,2013-07-06 06:55:00,
2013-07-06 02:58:00,76.2,71.7,30.01,West,264,0.0,0.0,86,0.00,,---,0.00,VWS V14.01,2013-07-06 06:58:00,
2013-07-06 03:00:00,76.2,71.7,30.01,West,264,0.0,0.0,86,0.00,,---,0.00,VWS V14.01,2013-07-06 07:00:00,
2013-07-06 03:01:00,76.2,71.7,30.01,West,263,0.0,0.0,86,0.00,,---,0.00,VWS V14.01,2013-07-06 07:01:00,
2013-07-06 03:03:00,76.2,71.7,30.01,West,263,0.0,0.0,86,0.00,,---,0.00,VWS V14.01,2013-07-06 07:03:00,
2013-07-06 03:05:00,76.2,71.7,30.01,West,263,0.0,0.0,86,0.00,,---,0.00,VWS V14.01,2013-07-06 07:05:00,
2013-07-06 03:06:00,76.2,71.7,30.01,West,263,0.0,0.0,86,0.00,,---,0.00,VWS V14.01,2013-07-06 07:06:00,
2013-07-06 03:08:00,76.1,71.6,30.01,West,263,0.0,0.0,86,0.00,,---,0.00,VWS V14.01,2013-07-06 07:08:00,
2013-07-06 03:10:00,76.1,71.6,30.01,West,269,0.0,0.0,86,0.00,,---,0.00,VWS V14.01,2013-07-06 07:10:00,
2013-07-06 03:11:00,76.2,71.4,30.01,West,273,0.0,0.0,85,0.00,,---,0.00,VWS V14.01,2013-07-06 07:11:00,
2013-07-06 03:13:00,76.2,71.4,30.01,WNW,290,0.0,0.0,85,0.00,,---,0.00,VWS V14.01,2013-07-06 07:13:00,
2013-07-06 03:16:00,76.3,71.5,30.01,West,262,0.0,0.0,85,0.00,,---,0.00,VWS V14.01,2013-07-06 07:16:00,
2013-07-06 03:17:00,76.3,71.5,30.01,West,270,0.0,0.0,85,0.00,,---,0.00,VWS V14.01,2013-07-06 07:17:00,
2013-07-06 03:18:00,76.4,71.6,30.01,WNW,287,0.0,0.0,85,0.00,,---,0.00,VWS V14.01,2013-07-06 07:18:00,
2013-07-06 03:19:00,76.4,71.6,30.01,WNW,287,0.0,0.0,85,0.00,,---,0.00,VWS V14.01,2013-07-06 07:19:00,
2013-07-06 03:21:00,76.4,71.6,30.01,WSW,257,0.0,0.0,85,0.00,,---,0.00,VWS V14.01,2013-07-06 07:21:00,
2013-07-06 03:23:00,76.4,71.6,30.01,West,278,0.0,0.0,85,0.00,,---,0.00,VWS V14.01,2013-07-06 07:23:00,
2013-07-06 03:24:00,76.4,71.6,30.01,West,281,0.0,0.0,85,0.00,,---,0.00,VWS V14.01,2013-07-06 07:24:00,
2013-07-06 03:28:00,76.4,71.6,30.01,WNW,292,0.0,0.0,85,0.00,,---,0.00,VWS V14.01,2013-07-06 07:28:00,
2013-07-06 03:31:00,76.4,71.6,30.01,West,270,0.0,0.0,85,0.00,,---,0.00,VWS V14.01,2013-07-06 07:31:00,
2013-07-06 03:32:00,76.4,71.6,30.01,WNW,295,0.0,0.0,85,0.00,,---,0.00,VWS V14.01,2013-07-06 07:32:00,
2013-07-06 03:33:00,76.3,71.5,30.01,WSW,257,0.0,0.0,85,0.00,,---,0.00,VWS V14.01,2013-07-06 07:33:00,
2013-07-06 03:34:00,76.3,71.5,30.01,West,262,0.0,0.0,85,0.00,,---,0.00,VWS V14.01,2013-07-06 07:34:00,
2013-07-06 03:36:00,76.3,71.5,30.01,West,277,0.0,0.0,85,0.00,,---,0.00,VWS V14.01,2013-07-06 07:36:00,
2013-07-06 03:37:00,76.3,71.5,30.01,West,264,0.0,0.0,85,0.00,,---,0.00,VWS V14.01,2013-07-06 07:37:00,
2013-07-06 03:38:00,76.3,71.5,30.01,West,269,0.0,0.0,85,0.00,,---,0.00,VWS V14.01,2013-07-06 07:38:00,
2013-07-06 03:39:00,76.2,71.4,30.01,West,274,0.0,0.0,85,0.00,,---,0.00,VWS V14.01,2013-07-06 07:39:00,
2013-07-06 03:41:00,76.2,71.4,30.01,West,270,0.0,0.0,85,0.00,,---,0.00,VWS V14.01,2013-07-06 07:41:00,
2013-07-06 03:42:00,76.2,71.7,30.01,West,260,0.0,0.0,86,0.00,,---,0.00,VWS V14.01,2013-07-06 07:42:00,
2013-07-06 03:43:00,76.1,71.6,30.01,WSW,256,0.0,0.0,86,0.00,,---,0.00,VWS V14.01,2013-07-06 07:43:00,
2013-07-06 03:45:00,76.1,71.6,30.01,West,260,0.0,0.0,86,0.00,,---,0.00,VWS V14.01,2013-07-06 07:45:00,
2013-07-06 03:46:00,76.1,71.6,30.01,West,260,0.0,0.0,86,0.00,,---,0.00,VWS V14.01,2013-07-06 07:46:00,
2013-07-06 03:47:00,76.0,71.5,30.01,West,260,0.0,0.0,86,0.00,,---,0.00,VWS V14.01,2013-07-06 07:47:00,
2013-07-06 03:48:00,76.0,71.5,30.01,West,260,0.0,0.0,86,0.00,,---,0.00,VWS V14.01,2013-07-06 07:48:00,
2013-07-06 03:51:00,75.9,71.8,30.01,West,266,0.0,0.0,87,0.00,,---,0.00,VWS V14.01,2013-07-06 07:51:00,
2013-07-06 03:52:00,75.9,71.8,30.01,West,267,0.0,0.0,87,0.00,,---,0.00,VWS V14.01,2013-07-06 07:52:00,
2013-07-06 03:53:00,75.9,71.8,30.01,West,267,0.0,0.0,87,0.00,,---,0.00,VWS V14.01,2013-07-06 07:53:00,
2013-07-06 03:56:00,75.8,71.7,30.01,West,266,0.0,0.0,87,0.00,,---,0.00,VWS V14.01,2013-07-06 07:56:00,
2013-07-06 03:57:00,75.8,71.7,30.01,West,263,0.0,0.0,87,0.00,,---,0.00,VWS V14.01,2013-07-06 07:57:00,
2013-07-06 03:58:00,75.7,71.6,30.01,WSW,256,0.0,0.0,87,0.00,,---,0.00,VWS V14.01,2013-07-06 07:58:00,
2013-07-06 04:02:00,75.5,71.7,30.01,WSW,257,0.0,0.0,88,0.00,,---,0.00,VWS V14.01,2013-07-06 08:02:00,
2013-07-06 04:03:00,75.5,71.7,30.01,WSW,245,0.0,0.0,88,0.00,,---,0.00,VWS V14.01,2013-07-06 08:03:00,
2013-07-06 04:05:00,75.5,71.7,30.01,West,269,0.0,0.0,88,0.00,,---,0.00,VWS V14.01,2013-07-06 08:05:00,
2013-07-06 04:08:00,75.4,71.6,30.01,SW,228,0.0,0.0,88,0.00,,---,0.00,VWS V14.01,2013-07-06 08:08:00,
2013-07-06 04:09:00,75.4,71.6,30.01,WSW,253,0.0,0.0,88,0.00,,---,0.00,VWS V14.01,2013-07-06 08:09:00,
2013-07-06 04:13:00,75.5,71.7,30.01,SW,230,0.0,0.0,88,0.00,,---,0.00,VWS V14.01,2013-07-06 08:13:00,
2013-07-06 04:14:00,75.5,71.7,30.01,WSW,242,0.0,0.0,88,0.00,,---,0.00,VWS V14.01,2013-07-06 08:14:00,
2013-07-06 04:15:00,75.5,71.7,30.00,WSW,248,0.0,0.0,88,0.00,,---,0.00,VWS V14.01,2013-07-06 08:15:00,
2013-07-06 04:18:00,75.5,71.7,30.00,WSW,245,0.0,0.0,88,0.00,,---,0.00,VWS V14.01,2013-07-06 08:18:00,
2013-07-06 04:19:00,75.5,71.7,30.00,West,260,0.0,0.0,88,0.00,,---,0.00,VWS V14.01,2013-07-06 08:19:00,
2013-07-06 04:21:00,75.5,71.7,30.00,WSW,238,0.0,0.0,88,0.00,,---,0.00,VWS V14.01,2013-07-06 08:21:00,
2013-07-06 04:24:00,75.5,71.4,30.00,West,263,0.0,0.0,87,0.00,,---,0.00,VWS V14.01,2013-07-06 08:24:00,
2013-07-06 04:25:00,75.4,71.3,30.00,WSW,242,0.0,0.0,87,0.00,,---,0.00,VWS V14.01,2013-07-06 08:25:00,
2013-07-06 04:27:00,75.5,71.4,30.00,WSW,241,0.0,0.0,87,0.00,,---,0.00,VWS V14.01,2013-07-06 08:27:00,
2013-07-06 04:29:00,75.5,71.4,30.00,WSW,257,0.0,0.0,87,0.00,,---,0.00,VWS V14.01,2013-07-06 08:29:00,
2013-07-06 04:30:00,75.5,71.4,30.00,West,260,0.0,0.0,87,0.00,,---,0.00,VWS V14.01,2013-07-06 08:30:00,
2013-07-06 04:32:00,75.5,71.0,30.00,WNW,283,0.0,0.0,86,0.00,,---,0.00,VWS V14.01,2013-07-06 08:32:00,
2013-07-06 04:33:00,75.5,71.0,30.00,West,263,0.0,0.0,86,0.00,,---,0.00,VWS V14.01,2013-07-06 08:33:00,
2013-07-06 04:34:00,75.5,71.0,30.00,West,279,0.0,0.0,86,0.00,,---,0.00,VWS V14.01,2013-07-06 08:34:00,
2013-07-06 04:36:00,75.5,71.0,30.00,West,279,0.0,0.0,86,0.00,,---,0.00,VWS V14.01,2013-07-06 08:36:00,
2013-07-06 04:38:00,75.5,71.0,30.00,West,281,0.0,0.0,86,0.00,,---,0.00,VWS V14.01,2013-07-06 08:38:00,
2013-07-06 04:40:00,75.5,71.0,30.00,West,277,0.0,0.0,86,0.00,,---,0.00,VWS V14.01,2013-07-06 08:40:00,
2013-07-06 04:41:00,75.5,71.0,30.00,WNW,287,0.0,0.0,86,0.00,,---,0.00,VWS V14.01,2013-07-06 08:41:00,
2013-07-06 04:43:00,75.5,71.0,30.00,West,279,0.0,0.0,86,0.00,,---,0.00,VWS V14.01,2013-07-06 08:43:00,
2013-07-06 04:45:00,75.5,71.0,30.00,West,280,0.0,0.0,86,0.00,,---,0.00,VWS V14.01,2013-07-06 08:45:00,
2013-07-06 04:46:00,75.5,71.0,30.00,West,280,0.0,0.0,86,0.00,,---,0.00,VWS V14.01,2013-07-06 08:46:00,
2013-07-06 04:48:00,75.5,71.0,30.00,West,273,0.0,0.0,86,0.00,,---,0.00,VWS V14.01,2013-07-06 08:48:00,
2013-07-06 04:50:00,75.5,71.0,30.00,West,278,0.0,0.0,86,0.00,,---,0.00,VWS V14.01,2013-07-06 08:50:00,
2013-07-06 04:51:00,75.5,71.0,30.00,West,267,0.0,0.0,86,0.00,,---,0.00,VWS V14.01,2013-07-06 08:51:00,
2013-07-06 04:53:00,75.5,71.0,30.00,West,279,0.0,0.0,86,0.00,,---,0.00,VWS V14.01,2013-07-06 08:53:00,
2013-07-06 04:54:00,75.4,70.9,30.00,West,278,0.0,0.0,86,0.00,,---,0.00,VWS V14.01,2013-07-06 08:54:00,
2013-07-06 04:55:00,75.4,70.9,30.00,West,278,0.0,0.0,86,0.00,,---,0.00,VWS V14.01,2013-07-06 08:55:00,
2013-07-06 04:58:00,75.3,71.2,30.00,West,278,0.0,0.0,87,0.00,,---,0.00,VWS V14.01,2013-07-06 08:58:00,
2013-07-06 04:59:00,75.3,71.2,30.00,WNW,284,0.0,0.0,87,0.00,,---,0.00,VWS V14.01,2013-07-06 08:59:00,
2013-07-06 05:00:00,75.3,71.2,30.00,NW,305,0.0,0.0,87,0.00,,---,0.00,VWS V14.01,2013-07-06 09:00:00,
2013-07-06 05:01:00,75.3,71.2,30.00,WNW,291,0.0,0.0,87,0.00,,---,0.00,VWS V14.01,2013-07-06 09:01:00,
2013-07-06 05:03:00,75.3,71.2,30.00,WNW,290,0.0,0.0,87,0.00,,---,0.00,VWS V14.01,2013-07-06 09:03:00,
2013-07-06 05:05:00,75.3,71.2,30.00,WNW,300,0.0,0.0,87,0.00,,---,0.00,VWS V14.01,2013-07-06 09:05:00,
2013-07-06 05:06:00,75.2,71.1,30.00,WNW,297,0.0,0.0,87,0.00,,---,0.00,VWS V14.01,2013-07-06 09:06:00,
2013-07-06 05:09:00,75.1,71.0,30.00,WNW,302,0.0,0.0,87,0.00,,---,0.00,VWS V14.01,2013-07-06 09:09:00,
2013-07-06 05:10:00,75.1,71.0,30.00,NW,306,0.0,0.0,87,0.00,,---,0.00,VWS V14.01,2013-07-06 09:10:00,
2013-07-06 05:11:00,75.0,70.9,30.00,NW,305,0.0,0.0,87,0.00,,---,0.00,VWS V14.01,2013-07-06 09:11:00,
2013-07-06 05:12:00,74.9,70.8,30.00,NW,305,0.0,0.0,87,0.00,,---,0.00,VWS V14.01,2013-07-06 09:12:00,
2013-07-06 05:13:00,74.9,71.1,30.00,NW,304,0.0,0.0,88,0.00,,---,0.00,VWS V14.01,2013-07-06 09:13:00,
2013-07-06 05:14:00,74.8,71.0,30.00,NW,305,0.0,0.0,88,0.00,,---,0.00,VWS V14.01,2013-07-06 09:14:00,
2013-07-06 05:15:00,74.7,70.9,30.00,WNW,285,0.0,0.0,88,0.00,,---,0.00,VWS V14.01,2013-07-06 09:15:00,
2013-07-06 05:17:00,74.7,70.9,30.00,WNW,302,0.0,0.0,88,0.00,,---,0.00,VWS V14.01,2013-07-06 09:17:00,
2013-07-06 05:18:00,74.6,70.8,30.01,WNW,302,0.0,0.0,88,0.00,,---,0.00,VWS V14.01,2013-07-06 09:18:00,
2013-07-06 05:19:00,74.6,70.8,30.01,WNW,302,0.0,0.0,88,0.00,,---,0.00,VWS V14.01,2013-07-06 09:19:00,
2013-07-06 05:20:00,74.6,70.8,30.00,WNW,302,0.0,0.0,88,0.00,,---,0.00,VWS V14.01,2013-07-06 09:20:00,
2013-07-06 05:21:00,74.6,70.8,30.01,WNW,302,0.0,0.0,88,0.00,,---,0.00,VWS V14.01,2013-07-06 09:21:00,
2013-07-06 05:22:00,74.6,70.8,30.01,WNW,302,0.0,0.0,88,0.00,,---,0.00,VWS V14.01,2013-07-06 09:22:00,
2013-07-06 05:23:00,74.6,70.8,30.01,WNW,302,0.0,0.0,88,0.00,,---,0.00,VWS V14.01,2013-07-06 09:23:00,
2013-07-06 05:25:00,74.6,70.8,30.01,WNW,302,0.0,0.0,88,0.00,,---,0.00,VWS V14.01,2013-07-06 09:25:00,
2013-07-06 05:26:00,74.5,70.7,30.01,WNW,302,0.0,0.0,88,0.00,,---,0.00,VWS V14.01,2013-07-06 09:26:00,
2013-07-06 05:27:00,74.5,70.7,30.01,WNW,302,0.0,0.0,88,0.00,,---,0.00,VWS V14.01,2013-07-06 09:27:00,
2013-07-06 05:28:00,74.5,71.1,30.01,WNW,300,0.0,0.0,89,0.00,,---,0.00,VWS V14.01,2013-07-06 09:28:00,
2013-07-06 05:29:00,74.5,71.1,30.01,WNW,300,0.0,0.0,89,0.00,,---,0.00,VWS V14.01,2013-07-06 09:29:00,
2013-07-06 05:32:00,74.5,71.1,30.01,West,277,0.0,0.0,89,0.00,,---,0.00,VWS V14.01,2013-07-06 09:32:00,
2013-07-06 05:33:00,74.5,71.1,30.01,West,277,0.0,0.0,89,0.00,,---,0.00,VWS V14.01,2013-07-06 09:33:00,
2013-07-06 05:34:00,74.6,71.2,30.01,West,270,0.0,0.0,89,0.00,,---,0.00,VWS V14.01,2013-07-06 09:34:00,
2013-07-06 05:35:00,74.7,71.2,30.01,WNW,282,0.0,0.0,89,0.00,,---,0.00,VWS V14.01,2013-07-06 09:35:00,
2013-07-06 05:37:00,74.8,71.0,30.01,WNW,283,0.0,0.0,88,0.00,,---,0.00,VWS V14.01,2013-07-06 09:37:00,
2013-07-06 05:38:00,74.9,71.1,30.01,WNW,282,0.0,0.0,88,0.00,,---,0.00,VWS V14.01,2013-07-06 09:38:00,
2013-07-06 05:39:00,74.9,71.1,30.01,WNW,285,0.0,0.0,88,0.00,,---,0.00,VWS V14.01,2013-07-06 09:39:00,
2013-07-06 05:42:00,74.9,71.1,30.01,WNW,285,0.0,0.0,88,0.00,,---,0.00,VWS V14.01,2013-07-06 09:42:00,
2013-07-06 05:43:00,74.9,71.1,30.01,WNW,285,0.0,0.0,88,0.00,,---,0.00,VWS V14.01,2013-07-06 09:43:00,
2013-07-06 05:45:00,74.9,71.1,30.01,WNW,285,0.0,0.0,88,0.00,,---,0.00,VWS V14.01,2013-07-06 09:45:00,
2013-07-06 05:46:00,74.9,71.1,30.01,WNW,285,0.0,0.0,88,0.00,,---,0.00,VWS V14.01,2013-07-06 09:46:00,
2013-07-06 05:47:00,74.9,71.1,30.01,WNW,285,0.0,0.0,88,0.00,,---,0.00,VWS V14.01,2013-07-06 09:47:00,
2013-07-06 05:48:00,74.9,71.1,30.01,WNW,285,0.0,0.0,88,0.00,,---,0.00,VWS V14.01,2013-07-06 09:48:00,
2013-07-06 05:49:00,74.9,71.1,30.01,WNW,285,0.0,0.0,88,0.00,,---,0.00,VWS V14.01,2013-07-06 09:49:00,
2013-07-06 05:50:00,74.8,71.0,30.01,WNW,285,0.0,0.0,88,0.00,,---,0.00,VWS V14.01,2013-07-06 09:50:00,
2013-07-06 05:53:00,74.7,70.9,30.01,WNW,285,0.0,0.0,88,0.00,,---,0.00,VWS V14.01,2013-07-06 09:53:00,
2013-07-06 05:54:00,74.7,70.9,30.01,WNW,285,0.0,0.0,88,0.00,,---,0.00,VWS V14.01,2013-07-06 09:54:00,
2013-07-06 05:55:00,74.7,70.9,30.01,WNW,285,0.0,0.0,88,0.00,,---,0.00,VWS V14.01,2013-07-06 09:55:00,
2013-07-06 05:58:00,74.7,70.9,30.01,West,279,0.0,0.0,88,0.00,,---,0.00,VWS V14.01,2013-07-06 09:58:00,
2013-07-06 05:59:00,74.7,70.9,30.01,West,280,0.0,0.0,88,0.00,,---,0.00,VWS V14.01,2013-07-06 09:59:00,
2013-07-06 06:00:00,74.7,70.9,30.01,West,279,0.0,0.0,88,0.00,,---,0.00,VWS V14.01,2013-07-06 10:00:00,
2013-07-06 06:04:00,74.8,71.0,30.01,West,280,0.0,0.0,88,0.00,,---,0.00,VWS V14.01,2013-07-06 10:04:00,
2013-07-06 06:05:00,74.8,71.0,30.01,West,279,0.0,0.0,88,0.00,,---,0.00,VWS V14.01,2013-07-06 10:05:00,
2013-07-06 06:09:00,75.0,71.5,30.01,WSW,257,0.0,0.0,89,0.00,,---,0.00,VWS V14.01,2013-07-06 10:09:00,
2013-07-06 06:11:00,75.1,71.3,30.01,West,259,0.0,0.0,88,0.00,,---,0.00,VWS V14.01,2013-07-06 10:11:00,
2013-07-06 06:12:00,75.1,71.3,30.01,WSW,239,0.0,0.0,88,0.00,,---,0.00,VWS V14.01,2013-07-06 10:12:00,
2013-07-06 06:14:00,75.3,71.8,30.01,SSE,157,0.0,0.0,89,0.00,,---,0.00,VWS V14.01,2013-07-06 10:14:00,
2013-07-06 06:16:00,75.4,71.6,30.01,SSE,160,0.0,0.0,88,0.00,,---,0.00,VWS V14.01,2013-07-06 10:16:00,
2013-07-06 06:17:00,75.4,71.6,30.01,SSE,165,0.0,0.0,88,0.00,,---,0.00,VWS V14.01,2013-07-06 10:17:00,
2013-07-06 06:19:00,75.6,71.8,30.01,SE,146,0.0,0.0,88,0.00,,---,0.00,VWS V14.01,2013-07-06 10:19:00,
2013-07-06 06:20:00,75.6,71.8,30.01,SE,146,0.0,0.0,88,0.00,,---,0.00,VWS V14.01,2013-07-06 10:20:00,
2013-07-06 06:22:00,75.7,71.9,30.01,SE,146,0.0,0.0,88,0.00,,---,0.00,VWS V14.01,2013-07-06 10:22:00,
2013-07-06 06:23:00,75.7,72.2,30.01,SSE,148,0.0,0.0,89,0.00,,---,0.00,VWS V14.01,2013-07-06 10:23:00,
2013-07-06 06:25:00,75.7,71.9,30.01,SSE,148,0.0,0.0,88,0.00,,---,0.00,VWS V14.01,2013-07-06 10:25:00,
2013-07-06 06:28:00,75.8,72.0,30.01,SSE,149,0.0,0.0,88,0.00,,---,0.00,VWS V14.01,2013-07-06 10:28:00,
2013-07-06 06:29:00,75.8,72.0,30.01,SSE,149,0.0,0.0,88,0.00,,---,0.00,VWS V14.01,2013-07-06 10:29:00,
2013-07-06 06:30:00,75.9,72.1,30.01,SSE,149,0.0,0.0,88,0.00,,---,0.00,VWS V14.01,2013-07-06 10:30:00,
2013-07-06 06:32:00,75.9,71.8,30.01,SSE,149,0.0,0.0,87,0.00,,---,0.00,VWS V14.01,2013-07-06 10:32:00,
2013-07-06 06:33:00,76.0,72.2,30.01,SSE,149,0.0,0.0,88,0.00,,---,0.00,VWS V14.01,2013-07-06 10:33:00,
2013-07-06 06:34:00,76.0,71.9,30.01,SSE,149,0.0,0.0,87,0.00,,---,0.00,VWS V14.01,2013-07-06 10:34:00,
2013-07-06 06:35:00,76.0,71.9,30.01,SSE,149,0.0,0.0,87,0.00,,---,0.00,VWS V14.01,2013-07-06 10:35:00,
2013-07-06 06:37:00,76.1,71.9,30.01,WSW,247,0.0,0.0,87,0.00,,---,0.00,VWS V14.01,2013-07-06 10:37:00,
2013-07-06 06:38:00,76.1,71.9,30.01,WSW,248,0.0,0.0,87,0.00,,---,0.00,VWS V14.01,2013-07-06 10:38:00,
2013-07-06 06:39:00,76.1,71.9,30.01,WSW,247,0.0,0.0,87,0.00,,---,0.00,VWS V14.01,2013-07-06 10:39:00,
2013-07-06 06:40:00,76.1,71.9,30.01,WSW,248,0.0,0.0,87,0.00,,---,0.00,VWS V14.01,2013-07-06 10:40:00,
2013-07-06 06:41:00,76.2,72.1,30.01,WSW,247,0.0,0.0,87,0.00,,---,0.00,VWS V14.01,2013-07-06 10:41:00,
2013-07-06 06:43:00,76.2,71.7,30.01,WSW,247,0.0,0.0,86,0.00,,---,0.00,VWS V14.01,2013-07-06 10:43:00,
2013-07-06 06:44:00,76.3,71.8,30.01,West,274,0.0,0.0,86,0.00,,---,0.00,VWS V14.01,2013-07-06 10:44:00,
2013-07-06 06:45:00,76.3,71.8,30.01,West,274,0.0,0.0,86,0.00,,---,0.00,VWS V14.01,2013-07-06 10:45:00,
2013-07-06 06:47:00,76.4,71.9,30.01,West,274,0.0,0.0,86,0.00,,---,0.00,VWS V14.01,2013-07-06 10:47:00,
2013-07-06 06:48:00,76.5,72.0,30.01,West,274,0.0,0.0,86,0.00,,---,0.00,VWS V14.01,2013-07-06 10:48:00,
2013-07-06 06:49:00,76.6,72.1,30.01,West,274,0.0,0.0,86,0.00,,---,0.00,VWS V14.01,2013-07-06 10:49:00,
2013-07-06 06:50:00,76.6,71.8,30.01,WSW,238,0.0,0.0,85,0.00,,---,0.00,VWS V14.01,2013-07-06 10:50:00,
2013-07-06 06:51:00,76.7,71.9,30.01,SW,219,0.0,0.0,85,0.00,,---,0.00,VWS V14.01,2013-07-06 10:51:00,
2013-07-06 06:52:00,76.7,71.9,30.01,SW,236,0.0,0.0,85,0.00,,---,0.00,VWS V14.01,2013-07-06 10:52:00,
2013-07-06 06:53:00,76.8,71.9,30.01,West,264,0.0,0.0,85,0.00,,---,0.00,VWS V14.01,2013-07-06 10:53:00,
2013-07-06 06:54:00,76.8,71.9,30.01,SW,232,0.0,0.0,85,0.00,,---,0.00,VWS V14.01,2013-07-06 10:54:00,
2013-07-06 06:55:00,76.9,72.1,30.01,WSW,253,0.0,0.0,85,0.00,,---,0.00,VWS V14.01,2013-07-06 10:55:00,
2013-07-06 06:57:00,76.9,72.1,30.01,West,277,0.0,0.0,85,0.00,,---,0.00,VWS V14.01,2013-07-06 10:57:00,
2013-07-06 06:59:00,77.0,72.2,30.01,West,276,0.0,0.0,85,0.00,,---,0.00,VWS V14.01,2013-07-06 10:59:00,
2013-07-06 07:00:00,77.0,71.8,30.01,NW,319,0.0,0.0,84,0.00,,---,0.00,VWS V14.01,2013-07-06 11:00:00,
2013-07-06 07:01:00,77.0,71.8,30.01,West,281,0.0,0.0,84,0.00,,---,0.00,VWS V14.01,2013-07-06 11:01:00,
2013-07-06 07:02:00,77.0,71.8,30.01,WNW,284,0.0,0.0,84,0.00,,---,0.00,VWS V14.01,2013-07-06 11:02:00,
2013-07-06 07:05:00,77.0,71.8,30.02,WSW,255,0.0,0.0,84,0.00,,---,0.00,VWS V14.01,2013-07-06 11:05:00,
2013-07-06 07:06:00,77.0,71.8,30.02,WSW,238,0.0,0.0,84,0.00,,---,0.00,VWS V14.01,2013-07-06 11:06:00,
2013-07-06 07:08:00,77.0,71.8,30.02,West,264,0.0,0.0,84,0.00,,---,0.00,VWS V14.01,2013-07-06 11:08:00,
2013-07-06 07:09:00,77.0,71.8,30.02,SW,214,0.0,0.0,84,0.00,,---,0.00,VWS V14.01,2013-07-06 11:09:00,
2013-07-06 07:10:00,77.0,71.8,30.02,West,276,0.0,0.0,84,0.00,,---,0.00,VWS V14.01,2013-07-06 11:10:00,
2013-07-06 07:12:00,77.0,71.8,30.02,WSW,252,0.0,0.0,84,0.00,,---,0.00,VWS V14.01,2013-07-06 11:12:00,
2013-07-06 07:13:00,77.0,71.8,30.02,WSW,256,0.0,0.0,84,0.00,,---,0.00,VWS V14.01,2013-07-06 11:13:00,
2013-07-06 07:14:00,77.0,71.8,30.02,WSW,255,0.0,0.0,84,0.00,,---,0.00,VWS V14.01,2013-07-06 11:14:00,
2013-07-06 07:16:00,77.1,71.9,30.02,NW,309,0.0,0.0,84,0.00,,---,0.00,VWS V14.01,2013-07-06 11:16:00,
2013-07-06 07:17:00,77.1,71.9,30.02,West,279,0.0,0.0,84,0.00,,---,0.00,VWS V14.01,2013-07-06 11:17:00,
2013-07-06 07:18:00,77.1,71.9,30.02,WSW,257,0.0,0.0,84,0.00,,---,0.00,VWS V14.01,2013-07-06 11:18:00,
2013-07-06 07:19:00,77.1,71.5,30.02,WSW,257,0.0,0.0,83,0.00,,---,0.00,VWS V14.01,2013-07-06 11:19:00,
2013-07-06 07:20:00,77.1,71.5,30.02,NW,304,0.0,0.0,83,0.00,,---,0.00,VWS V14.01,2013-07-06 11:20:00,
2013-07-06 07:22:00,77.2,71.6,30.02,West,279,0.0,0.0,83,0.00,,---,0.00,VWS V14.01,2013-07-06 11:22:00,
2013-07-06 07:24:00,77.2,71.6,30.02,West,270,0.0,0.0,83,0.00,,---,0.00,VWS V14.01,2013-07-06 11:24:00,
2013-07-06 07:25:00,77.2,71.6,30.02,NNW,333,0.0,0.0,83,0.00,,---,0.00,VWS V14.01,2013-07-06 11:25:00,
2013-07-06 07:27:00,77.3,71.7,30.02,WSW,238,0.0,0.0,83,0.00,,---,0.00,VWS V14.01,2013-07-06 11:27:00,
2013-07-06 07:29:00,77.3,71.7,30.02,West,273,0.0,0.0,83,0.00,,---,0.00,VWS V14.01,2013-07-06 11:29:00,
2013-07-06 07:30:00,77.4,71.8,30.02,West,267,0.0,0.0,83,0.00,,---,0.00,VWS V14.01,2013-07-06 11:30:00,
2013-07-06 07:31:00,77.4,71.8,30.02,SW,230,0.0,0.0,83,0.00,,---,0.00,VWS V14.01,2013-07-06 11:31:00,
2013-07-06 07:32:00,77.4,71.8,30.02,West,260,0.0,0.0,83,0.00,,---,0.00,VWS V14.01,2013-07-06 11:32:00,
2013-07-06 07:35:00,77.5,71.9,30.02,WSW,248,0.0,0.0,83,0.00,,---,0.00,VWS V14.01,2013-07-06 11:35:00,
2013-07-06 07:36:00,77.5,71.9,30.02,WSW,253,0.0,0.0,83,0.00,,---,0.00,VWS V14.01,2013-07-06 11:36:00,
2013-07-06 07:38:00,77.5,71.6,30.02,SSE,160,0.0,0.0,82,0.00,,---,0.00,VWS V14.01,2013-07-06 11:38:00,
2013-07-06 07:40:00,77.6,71.7,30.02,SW,225,0.0,0.0,82,0.00,,---,0.00,VWS V14.01,2013-07-06 11:40:00,
2013-07-06 07:41:00,77.6,71.7,30.02,West,270,0.0,0.0,82,0.00,,---,0.00,VWS V14.01,2013-07-06 11:41:00,
2013-07-06 07:43:00,77.6,71.7,30.01,NW,308,0.0,0.0,82,0.00,,---,0.00,VWS V14.01,2013-07-06 11:43:00,
2013-07-06 07:46:00,77.8,71.9,30.01,SE,146,0.0,0.0,82,0.00,,---,0.00,VWS V14.01,2013-07-06 11:46:00,
2013-07-06 07:49:00,77.9,72.0,30.01,WNW,293,0.0,0.0,82,0.00,,---,0.00,VWS V14.01,2013-07-06 11:49:00,
2013-07-06 07:52:00,78.1,71.8,30.02,SW,219,0.0,0.0,81,0.00,,---,0.00,VWS V14.01,2013-07-06 11:52:00,
2013-07-06 07:53:00,78.0,71.7,30.02,WSW,246,0.0,0.0,81,0.00,,---,0.00,VWS V14.01,2013-07-06 11:53:00,
2013-07-06 07:54:00,78.1,71.8,30.02,WSW,244,0.0,0.0,81,0.00,,---,0.00,VWS V14.01,2013-07-06 11:54:00,
2013-07-06 07:55:00,78.1,71.8,30.02,NW,312,0.0,0.0,81,0.00,,---,0.00,VWS V14.01,2013-07-06 11:55:00,
2013-07-06 07:58:00,78.3,72.0,30.02,WNW,302,0.0,0.0,81,0.00,,---,0.00,VWS V14.01,2013-07-06 11:58:00,
2013-07-06 08:00:00,78.4,71.7,30.02,WNW,290,0.0,0.0,80,0.00,,---,0.00,VWS V14.01,2013-07-06 12:00:00,
2013-07-06 08:03:00,78.3,71.6,30.02,WSW,237,0.0,0.0,80,0.00,,---,0.00,VWS V14.01,2013-07-06 12:03:00,
2013-07-06 08:04:00,78.2,71.5,30.02,NW,321,0.0,0.0,80,0.00,,---,0.00,VWS V14.01,2013-07-06 12:04:00,
2013-07-06 08:05:00,78.3,72.0,30.02,West,277,0.0,0.0,81,0.00,,---,0.00,VWS V14.01,2013-07-06 12:05:00,
2013-07-06 08:06:00,78.3,72.0,30.02,WNW,300,0.0,0.0,81,0.00,,---,0.00,VWS V14.01,2013-07-06 12:06:00,
2013-07-06 08:08:00,78.3,72.0,30.02,NNW,342,0.0,0.0,81,0.00,,---,0.00,VWS V14.01,2013-07-06 12:08:00,
2013-07-06 08:09:00,78.4,72.1,30.02,NW,313,0.0,0.0,81,0.00,,---,0.00,VWS V14.01,2013-07-06 12:09:00,
2013-07-06 08:10:00,78.4,72.1,30.02,North,350,0.0,0.0,81,0.00,,---,0.00,VWS V14.01,2013-07-06 12:10:00,
2013-07-06 08:11:00,78.5,72.2,30.02,WSW,243,0.0,0.0,81,0.00,,---,0.00,VWS V14.01,2013-07-06 12:11:00,
2013-07-06 08:12:00,78.5,71.8,30.02,West,264,0.0,0.0,80,0.00,,---,0.00,VWS V14.01,2013-07-06 12:12:00,
2013-07-06 08:14:00,78.6,71.9,30.01,WSW,257,0.0,0.0,80,0.00,,---,0.00,VWS V14.01,2013-07-06 12:14:00,
2013-07-06 08:15:00,78.6,71.9,30.01,WSW,249,0.0,0.0,80,0.00,,---,0.00,VWS V14.01,2013-07-06 12:15:00,
2013-07-06 08:16:00,78.6,71.9,30.01,WSW,245,0.0,0.0,80,0.00,,---,0.00,VWS V14.01,2013-07-06 12:16:00,
2013-07-06 08:17:00,78.6,71.9,30.01,WSW,249,0.0,0.0,80,0.00,,---,0.00,VWS V14.01,2013-07-06 12:17:00,
2013-07-06 08:18:00,78.6,71.9,30.01,WSW,255,0.0,0.0,80,0.00,,---,0.00,VWS V14.01,2013-07-06 12:18:00,
2013-07-06 08:21:00,78.6,71.6,30.01,NW,307,0.0,0.0,79,0.00,,---,0.00,VWS V14.01,2013-07-06 12:21:00,
2013-07-06 08:22:00,78.6,71.9,30.01,West,276,0.0,0.0,80,0.00,,---,0.00,VWS V14.01,2013-07-06 12:22:00,
2013-07-06 08:23:00,78.6,71.6,30.01,WSW,252,0.0,0.0,79,0.00,,---,0.00,VWS V14.01,2013-07-06 12:23:00,
2013-07-06 08:24:00,78.6,71.9,30.01,West,278,0.0,0.0,80,0.00,,---,0.00,VWS V14.01,2013-07-06 12:24:00,
2013-07-06 08:27:00,78.6,71.9,30.01,South,177,0.0,0.0,80,0.00,,---,0.00,VWS V14.01,2013-07-06 12:27:00,
2013-07-06 08:28:00,78.6,71.9,30.01,West,272,0.0,0.0,80,0.00,,---,0.00,VWS V14.01,2013-07-06 12:28:00,
2013-07-06 08:30:00,78.5,71.4,30.01,West,262,0.0,0.0,79,0.00,,---,0.00,VWS V14.01,2013-07-06 12:30:00,
2013-07-06 08:32:00,78.6,71.9,30.01,SW,232,0.0,0.0,80,0.00,,---,0.00,VWS V14.01,2013-07-06 12:32:00,
2013-07-06 08:33:00,78.6,71.9,30.01,WSW,247,0.0,0.0,80,0.00,,---,0.00,VWS V14.01,2013-07-06 12:33:00,
2013-07-06 08:36:00,78.7,71.6,30.01,SW,233,0.0,0.0,79,0.00,,---,0.00,VWS V14.01,2013-07-06 12:36:00,
2013-07-06 08:38:00,78.8,71.7,30.02,WSW,250,0.0,0.0,79,0.00,,---,0.00,VWS V14.01,2013-07-06 12:38:00,
2013-07-06 08:39:00,78.8,71.7,30.02,SW,232,0.0,0.0,79,0.00,,---,0.00,VWS V14.01,2013-07-06 12:39:00,
2013-07-06 08:43:00,78.8,71.7,30.01,East,91,0.0,0.0,79,0.00,,---,0.00,VWS V14.01,2013-07-06 12:43:00,
2013-07-06 08:44:00,78.9,71.8,30.01,West,269,0.0,0.0,79,0.00,,---,0.00,VWS V14.01,2013-07-06 12:44:00,
2013-07-06 08:45:00,78.9,71.8,30.01,SW,227,0.0,0.0,79,0.00,,---,0.00,VWS V14.01,2013-07-06 12:45:00,
2013-07-06 08:46:00,78.9,71.8,30.01,WSW,253,0.0,0.0,79,0.00,,---,0.00,VWS V14.01,2013-07-06 12:46:00,
2013-07-06 08:48:00,79.0,71.9,30.01,SW,227,0.0,0.0,79,0.00,,---,0.00,VWS V14.01,2013-07-06 12:48:00,
2013-07-06 08:49:00,79.0,71.9,30.01,SW,214,0.0,0.0,79,0.00,,---,0.00,VWS V14.01,2013-07-06 12:49:00,
2013-07-06 08:50:00,79.1,72.0,30.01,SW,236,0.0,0.0,79,0.00,,---,0.00,VWS V14.01,2013-07-06 12:50:00,
2013-07-06 08:51:00,79.2,71.8,30.01,SW,219,0.0,0.0,78,0.00,,---,0.00,VWS V14.01,2013-07-06 12:51:00,
2013-07-06 08:54:00,79.3,71.8,30.01,WSW,248,0.0,0.0,78,0.00,,---,0.00,VWS V14.01,2013-07-06 12:54:00,
2013-07-06 08:55:00,79.3,71.8,30.01,WSW,255,0.0,0.0,78,0.00,,---,0.00,VWS V14.01,2013-07-06 12:55:00,
2013-07-06 08:56:00,79.3,71.8,30.01,SW,219,0.0,0.0,78,0.00,,---,0.00,VWS V14.01,2013-07-06 12:56:00,
2013-07-06 08:59:00,79.7,72.2,30.01,West,267,0.0,0.0,78,0.00,,---,0.00,VWS V14.01,2013-07-06 12:59:00,
2013-07-06 09:00:00,79.8,72.3,30.01,SW,231,0.0,0.0,78,0.00,,---,0.00,VWS V14.01,2013-07-06 13:00:00,
2013-07-06 09:01:00,79.8,72.3,30.01,West,273,0.0,0.0,78,0.00,,---,0.00,VWS V14.01,2013-07-06 13:01:00,
2013-07-06 09:02:00,79.9,72.4,30.01,NW,308,0.0,0.0,78,0.00,,---,0.00,VWS V14.01,2013-07-06 13:02:00,
2013-07-06 09:05:00,80.2,72.3,30.01,SSW,193,0.0,0.0,77,0.00,,---,0.00,VWS V14.01,2013-07-06 13:05:00,
2013-07-06 09:06:00,80.3,72.4,30.01,WNW,289,0.0,0.0,77,0.00,,---,0.00,VWS V14.01,2013-07-06 13:06:00,
2013-07-06 09:07:00,80.4,72.2,30.01,SSW,203,0.0,0.0,76,0.00,,---,0.00,VWS V14.01,2013-07-06 13:07:00,
2013-07-06 09:08:00,80.4,72.2,30.01,SW,232,0.0,0.0,76,0.00,,---,0.00,VWS V14.01,2013-07-06 13:08:00,
2013-07-06 09:10:00,80.7,72.4,30.01,West,261,0.0,0.0,76,0.00,,---,0.00,VWS V14.01,2013-07-06 13:10:00,
2013-07-06 09:12:00,80.8,72.1,30.00,WSW,250,0.0,0.0,75,0.00,,---,0.00,VWS V14.01,2013-07-06 13:12:00,
2013-07-06 09:13:00,80.9,72.6,30.01,WSW,255,0.0,0.0,76,0.00,,---,0.00,VWS V14.01,2013-07-06 13:13:00,
2013-07-06 09:14:00,80.9,72.2,30.01,NW,323,0.0,0.0,75,0.00,,---,0.00,VWS V14.01,2013-07-06 13:14:00,
2013-07-06 09:17:00,81.0,72.3,30.00,West,260,0.0,0.0,75,0.00,,---,0.00,VWS V14.01,2013-07-06 13:17:00,
2013-07-06 09:18:00,81.0,72.3,30.01,WSW,248,0.0,0.0,75,0.00,,---,0.00,VWS V14.01,2013-07-06 13:18:00,
2013-07-06 09:20:00,81.3,72.2,30.00,SW,214,0.0,0.0,74,0.00,,---,0.00,VWS V14.01,2013-07-06 13:20:00,
2013-07-06 09:22:00,81.4,72.3,30.00,West,267,0.0,0.0,74,0.00,,---,0.00,VWS V14.01,2013-07-06 13:22:00,
2013-07-06 09:23:00,81.4,72.3,30.00,WSW,238,0.0,0.0,74,0.00,,---,0.00,VWS V14.01,2013-07-06 13:23:00,
2013-07-06 09:24:00,81.6,72.1,30.00,West,273,0.0,0.0,73,0.00,,---,0.00,VWS V14.01,2013-07-06 13:24:00,
2013-07-06 09:25:00,81.6,72.1,30.00,ENE,72,0.0,0.0,73,0.00,,---,0.00,VWS V14.01,2013-07-06 13:25:00,
2013-07-06 09:28:00,81.8,71.9,30.00,NW,309,0.0,0.0,72,0.00,,---,0.00,VWS V14.01,2013-07-06 13:28:00,
2013-07-06 09:29:00,81.8,71.9,30.00,WSW,238,0.0,0.0,72,0.00,,---,0.00,VWS V14.01,2013-07-06 13:29:00,
2013-07-06 09:30:00,81.7,72.2,30.00,NNE,30,0.0,0.0,73,0.00,,---,0.00,VWS V14.01,2013-07-06 13:30:00,
2013-07-06 09:31:00,81.8,71.9,30.00,West,261,0.0,0.0,72,0.00,,---,0.00,VWS V14.01,2013-07-06 13:31:00,
2013-07-06 09:33:00,81.7,71.8,30.00,SW,227,0.0,0.0,72,0.00,,---,0.00,VWS V14.01,2013-07-06 13:33:00,
2013-07-06 09:34:00,81.8,71.9,30.00,WNW,287,0.0,0.0,72,0.00,,---,0.00,VWS V14.01,2013-07-06 13:34:00,
2013-07-06 09:36:00,81.9,72.0,30.00,West,260,0.0,0.0,72,0.00,,---,0.00,VWS V14.01,2013-07-06 13:36:00,
2013-07-06 09:37:00,81.9,72.0,30.00,West,281,0.0,0.0,72,0.00,,---,0.00,VWS V14.01,2013-07-06 13:37:00,
2013-07-06 09:38:00,81.9,72.0,30.00,West,272,0.0,0.0,72,0.00,,---,0.00,VWS V14.01,2013-07-06 13:38:00,
2013-07-06 09:39:00,82.0,72.1,30.00,East,92,0.0,0.0,72,0.00,,---,0.00,VWS V14.01,2013-07-06 13:39:00,
2013-07-06 09:42:00,82.0,71.7,30.00,West,264,1.0,1.0,71,0.00,,---,0.00,VWS V14.01,2013-07-06 13:42:00,
2013-07-06 09:43:00,82.0,71.7,30.00,WSW,242,0.0,1.0,71,0.00,,---,0.00,VWS V14.01,2013-07-06 13:43:00,
2013-07-06 09:44:00,81.9,72.0,30.00,NW,309,0.0,1.0,72,0.00,,---,0.00,VWS V14.01,2013-07-06 13:44:00,
2013-07-06 09:45:00,81.9,72.0,30.00,NW,319,0.0,1.0,72,0.00,,---,0.00,VWS V14.01,2013-07-06 13:45:00,
2013-07-06 09:47:00,82.0,71.7,30.00,NW,308,8.0,8.0,71,0.00,,---,0.00,VWS V14.01,2013-07-06 13:47:00,
2013-07-06 09:48:00,82.0,71.3,30.00,West,269,7.0,12.0,70,0.00,,---,0.00,VWS V14.01,2013-07-06 13:48:00,
2013-07-06 09:50:00,81.9,71.6,30.00,WSW,240,4.0,12.0,71,0.00,,---,0.00,VWS V14.01,2013-07-06 13:50:00,
2013-07-06 09:52:00,81.8,71.5,30.00,WNW,283,5.0,12.0,71,0.00,,---,0.00,VWS V14.01,2013-07-06 13:52:00,
2013-07-06 09:53:00,81.8,71.5,30.00,WSW,257,3.0,12.0,71,0.00,,---,0.00,VWS V14.01,2013-07-06 13:53:00,
2013-07-06 09:55:00,81.8,71.9,30.00,WSW,247,2.0,12.0,72,0.00,,---,0.00,VWS V14.01,2013-07-06 13:55:00,
2013-07-06 09:56:00,81.9,72.0,30.00,WSW,252,10.0,12.0,72,0.00,,---,0.00,VWS V14.01,2013-07-06 13:56:00,
2013-07-06 09:58:00,82.0,71.3,30.00,West,265,8.0,9.0,70,0.00,,---,0.00,VWS V14.01,2013-07-06 13:58:00,
2013-07-06 09:59:00,82.0,71.3,30.00,WSW,252,9.0,9.0,70,0.00,,---,0.00,VWS V14.01,2013-07-06 13:59:00,
2013-07-06 10:00:00,82.0,71.3,30.00,West,272,6.0,10.0,70,0.00,,---,0.00,VWS V14.01,2013-07-06 14:00:00,
2013-07-06 10:01:00,82.0,71.3,30.00,WNW,293,3.0,10.0,70,0.00,,---,0.00,VWS V14.01,2013-07-06 14:01:00,
2013-07-06 10:02:00,82.0,71.7,30.00,SW,235,9.0,10.0,71,0.00,,---,0.00,VWS V14.01,2013-07-06 14:02:00,
2013-07-06 10:04:00,82.1,71.8,30.00,WSW,248,3.0,10.0,71,0.00,,---,0.00,VWS V14.01,2013-07-06 14:04:00,
2013-07-06 10:05:00,82.2,71.9,30.00,WSW,255,2.0,10.0,71,0.00,,---,0.00,VWS V14.01,2013-07-06 14:05:00,
2013-07-06 10:08:00,82.3,71.5,30.00,ESE,115,3.0,10.0,70,0.00,,---,0.00,VWS V14.01,2013-07-06 14:08:00,
2013-07-06 10:10:00,82.4,71.6,30.00,SSW,203,2.0,10.0,70,0.00,,---,0.00,VWS V14.01,2013-07-06 14:10:00,
2013-07-06 10:13:00,82.5,71.3,30.00,WSW,253,7.0,10.0,69,0.00,,---,0.00,VWS V14.01,2013-07-06 14:13:00,
2013-07-06 10:15:00,82.7,71.9,30.00,West,274,3.0,10.0,70,0.00,,---,0.00,VWS V14.01,2013-07-06 14:15:00,
2013-07-06 10:16:00,82.7,71.9,30.00,NNE,13,1.0,10.0,70,0.00,,---,0.00,VWS V14.01,2013-07-06 14:16:00,
2013-07-06 10:18:00,82.8,72.0,30.00,WSW,240,4.0,10.0,70,0.00,,---,0.00,VWS V14.01,2013-07-06 14:18:00,
2013-07-06 10:20:00,82.7,71.9,30.00,NNW,331,2.0,10.0,70,0.00,,---,0.00,VWS V14.01,2013-07-06 14:20:00,
2013-07-06 10:21:00,82.7,71.9,30.00,WNW,287,2.0,10.0,70,0.00,,---,0.00,VWS V14.01,2013-07-06 14:21:00,
2013-07-06 10:22:00,82.6,71.4,30.00,WSW,247,3.0,10.0,69,0.00,,---,0.00,VWS V14.01,2013-07-06 14:22:00,
2013-07-06 10:23:00,82.5,71.3,30.00,West,274,4.0,10.0,69,0.00,,---,0.00,VWS V14.01,2013-07-06 14:23:00,
2013-07-06 10:26:00,82.4,71.6,30.00,WSW,250,2.0,10.0,70,0.00,,---,0.00,VWS V14.01,2013-07-06 14:26:00,
2013-07-06 10:27:00,82.6,71.8,30.00,West,259,2.0,10.0,70,0.00,,---,0.00,VWS V14.01,2013-07-06 14:27:00,
2013-07-06 10:28:00,82.7,71.9,30.00,West,269,2.0,10.0,70,0.00,,---,0.00,VWS V14.01,2013-07-06 14:28:00,
2013-07-06 10:29:00,82.9,72.1,30.00,NNW,335,0.0,2.0,70,0.00,,---,0.00,VWS V14.01,2013-07-06 14:29:00,
2013-07-06 10:31:00,83.2,72.0,30.00,WNW,287,5.0,8.0,69,0.00,,---,0.00,VWS V14.01,2013-07-06 14:31:00,
2013-07-06 10:32:00,83.1,71.9,30.00,SSW,200,3.0,8.0,69,0.00,,---,0.00,VWS V14.01,2013-07-06 14:32:00,
2013-07-06 10:33:00,83.0,71.4,30.00,WSW,249,5.0,8.0,68,0.00,,---,0.00,VWS V14.01,2013-07-06 14:33:00,
2013-07-06 10:34:00,82.9,71.7,30.00,SW,229,5.0,8.0,69,0.00,,---,0.00,VWS V14.01,2013-07-06 14:34:00,
2013-07-06 10:37:00,82.9,71.7,30.00,WSW,252,4.0,8.0,69,0.00,,---,0.00,VWS V14.01,2013-07-06 14:37:00,
2013-07-06 10:38:00,83.0,71.8,30.00,SW,222,4.0,8.0,69,0.00,,---,0.00,VWS V14.01,2013-07-06 14:38:00,
2013-07-06 10:40:00,83.0,71.8,30.00,West,277,1.0,8.0,69,0.00,,---,0.00,VWS V14.01,2013-07-06 14:40:00,
2013-07-06 10:42:00,82.9,71.7,30.00,SSW,198,2.0,9.0,69,0.00,,---,0.00,VWS V14.01,2013-07-06 14:42:00,
2013-07-06 10:43:00,82.9,71.7,30.00,West,264,4.0,9.0,69,0.00,,---,0.00,VWS V14.01,2013-07-06 14:43:00,
2013-07-06 10:44:00,82.9,71.3,30.00,WNW,287,3.0,9.0,68,0.00,,---,0.00,VWS V14.01,2013-07-06 14:44:00,
2013-07-06 10:45:00,82.9,71.7,30.00,WSW,243,3.0,9.0,69,0.00,,---,0.00,VWS V14.01,2013-07-06 14:45:00,
2013-07-06 10:48:00,83.1,71.9,30.00,West,274,3.0,9.0,69,0.00,,---,0.00,VWS V14.01,2013-07-06 14:48:00,
2013-07-06 10:49:00,83.2,71.6,30.00,West,266,4.0,9.0,68,0.00,,---,0.00,VWS V14.01,2013-07-06 14:49:00,
2013-07-06 10:50:00,83.2,71.6,30.00,WSW,238,6.0,9.0,68,0.00,,---,0.00,VWS V14.01,2013-07-06 14:50:00,
2013-07-06 10:53:00,83.0,71.4,30.00,WSW,242,3.0,9.0,68,0.00,,---,0.00,VWS V14.01,2013-07-06 14:53:00,
2013-07-06 10:54:00,83.0,71.4,30.00,WNW,283,4.0,9.0,68,0.00,,---,0.00,VWS V14.01,2013-07-06 14:54:00,
2013-07-06 10:55:00,83.1,71.4,30.00,SE,143,2.0,9.0,68,0.00,,---,0.00,VWS V14.01,2013-07-06 14:55:00,
2013-07-06 10:56:00,83.1,71.0,30.00,West,264,4.0,12.0,67,0.00,,---,0.00,VWS V14.01,2013-07-06 14:56:00,
2013-07-06 10:59:00,83.1,71.4,30.00,WSW,248,4.0,10.0,68,0.00,,---,0.00,VWS V14.01,2013-07-06 14:59:00,
2013-07-06 11:00:00,83.0,71.4,30.00,WSW,246,5.0,10.0,68,0.00,,---,0.00,VWS V14.01,2013-07-06 15:00:00,
2013-07-06 11:01:00,83.0,71.4,30.00,WSW,238,4.0,10.0,68,0.00,,---,0.00,VWS V14.01,2013-07-06 15:01:00,
2013-07-06 11:02:00,83.0,71.4,30.00,West,260,8.0,11.0,68,0.00,,---,0.00,VWS V14.01,2013-07-06 15:02:00,
2013-07-06 11:04:00,83.2,72.0,30.00,WSW,239,3.0,11.0,69,0.00,,---,0.00,VWS V14.01,2013-07-06 15:04:00,
2013-07-06 11:05:00,83.2,71.6,30.00,West,267,4.0,11.0,68,0.00,,---,0.00,VWS V14.01,2013-07-06 15:05:00,
2013-07-06 11:07:00,83.4,71.7,30.00,NW,315,4.0,11.0,68,0.00,,---,0.00,VWS V14.01,2013-07-06 15:07:00,
2013-07-06 11:09:00,83.5,71.4,30.00,West,280,3.0,11.0,67,0.00,,---,0.00,VWS V14.01,2013-07-06 15:09:00,
2013-07-06 11:10:00,83.6,71.5,30.00,SSW,212,7.0,11.0,67,0.00,,---,0.00,VWS V14.01,2013-07-06 15:10:00,
2013-07-06 11:13:00,83.3,71.6,30.00,SW,235,8.0,14.0,68,0.00,,---,0.00,VWS V14.01,2013-07-06 15:13:00,
2013-07-06 11:14:00,83.3,71.2,30.00,NW,312,8.0,14.0,67,0.00,,---,0.00,VWS V14.01,2013-07-06 15:14:00,
2013-07-06 11:19:00,83.0,70.9,30.00,West,263,9.0,9.0,67,0.00,,---,0.00,VWS V14.01,2013-07-06 15:19:00,
2013-07-06 11:20:00,83.0,70.9,30.00,West,271,9.0,9.0,67,0.00,,---,0.00,VWS V14.01,2013-07-06 15:20:00,
2013-07-06 11:21:00,83.0,71.4,30.00,SW,229,4.0,9.0,68,0.00,,---,0.00,VWS V14.01,2013-07-06 15:21:00,
2013-07-06 11:25:00,83.1,71.0,30.00,WSW,250,7.0,10.0,67,0.00,,---,0.00,VWS V14.01,2013-07-06 15:25:00,
2013-07-06 11:27:00,83.1,71.0,30.00,WSW,253,4.0,10.0,67,0.00,,---,0.00,VWS V14.01,2013-07-06 15:27:00,
2013-07-06 11:30:00,83.1,71.0,30.00,SW,232,5.0,7.0,67,0.00,,---,0.00,VWS V14.01,2013-07-06 15:30:00,
2013-07-06 11:31:00,83.0,70.9,30.00,WSW,252,6.0,7.0,67,0.00,,---,0.00,VWS V14.01,2013-07-06 15:31:00,
2013-07-06 11:32:00,83.0,70.9,30.00,WSW,254,4.0,8.0,67,0.00,,---,0.00,VWS V14.01,2013-07-06 15:32:00,
2013-07-06 11:36:00,82.8,71.2,30.00,WSW,245,5.0,11.0,68,0.00,,---,0.00,VWS V14.01,2013-07-06 15:36:00,
2013-07-06 11:37:00,82.8,71.2,30.00,WSW,256,6.0,11.0,68,0.00,,---,0.00,VWS V14.01,2013-07-06 15:37:00,
2013-07-06 11:38:00,82.9,71.3,30.00,SW,235,7.0,11.0,68,0.00,,---,0.00,VWS V14.01,2013-07-06 15:38:00,
2013-07-06 11:39:00,83.0,71.8,30.00,WNW,295,6.0,11.0,69,0.00,,---,0.00,VWS V14.01,2013-07-06 15:39:00,
2013-07-06 11:41:00,83.0,71.4,30.00,WNW,295,9.0,11.0,68,0.00,,---,0.00,VWS V14.01,2013-07-06 15:41:00,
2013-07-06 11:42:00,83.0,70.9,30.00,SW,225,5.0,11.0,67,0.00,,---,0.00,VWS V14.01,2013-07-06 15:42:00,
2013-07-06 11:43:00,83.0,71.8,30.00,South,181,2.0,11.0,69,0.00,,---,0.00,VWS V14.01,2013-07-06 15:43:00,
2013-07-06 11:44:00,83.2,71.6,29.99,East,99,7.0,11.0,68,0.00,,---,0.00,VWS V14.01,2013-07-06 15:44:00,
2013-07-06 11:47:00,83.6,71.5,29.99,WSW,250,6.0,15.0,67,0.00,,---,0.00,VWS V14.01,2013-07-06 15:47:00,
2013-07-06 11:48:00,83.6,71.5,29.99,WSW,242,4.0,15.0,67,0.00,,---,0.00,VWS V14.01,2013-07-06 15:48:00,
2013-07-06 11:51:00,83.6,71.1,29.99,WNW,295,6.0,15.0,66,0.00,,---,0.00,VWS V14.01,2013-07-06 15:51:00,
2013-07-06 11:52:00,83.6,71.1,29.99,West,273,6.0,15.0,66,0.00,,---,0.00,VWS V14.01,2013-07-06 15:52:00,
2013-07-06 11:54:00,83.6,71.1,29.99,WSW,257,4.0,15.0,66,0.00,,---,0.00,VWS V14.01,2013-07-06 15:54:00,
2013-07-06 11:57:00,84.0,71.0,29.99,SW,231,8.0,15.0,65,0.00,,---,0.00,VWS V14.01,2013-07-06 15:57:00,
2013-07-06 11:59:00,84.0,71.0,29.99,WSW,252,8.0,8.0,65,0.00,,---,0.00,VWS V14.01,2013-07-06 15:59:00,
2013-07-06 12:00:00,84.0,71.0,29.99,West,259,8.0,9.0,65,0.00,,---,0.00,VWS V14.01,2013-07-06 16:00:00,
2013-07-06 12:03:00,83.8,70.3,29.99,West,264,7.0,12.0,64,0.00,,---,0.00,VWS V14.01,2013-07-06 16:03:00,
2013-07-06 12:05:00,83.7,70.7,29.99,West,281,2.0,12.0,65,0.00,,---,0.00,VWS V14.01,2013-07-06 16:05:00,
2013-07-06 12:08:00,83.9,70.4,29.98,South,187,4.0,12.0,64,0.00,,---,0.00,VWS V14.01,2013-07-06 16:08:00,
2013-07-06 12:11:00,84.4,70.4,29.98,SW,227,5.0,12.0,63,0.00,,---,0.00,VWS V14.01,2013-07-06 16:11:00,
2013-07-06 12:14:00,84.6,70.6,29.98,West,269,5.0,12.0,63,0.00,,---,0.00,VWS V14.01,2013-07-06 16:14:00,
2013-07-06 12:15:00,84.8,70.3,29.98,West,259,4.0,12.0,62,0.00,,---,0.00,VWS V14.01,2013-07-06 16:15:00,
2013-07-06 12:18:00,85.0,70.1,29.98,WSW,253,4.0,12.0,61,0.00,,---,0.00,VWS V14.01,2013-07-06 16:18:00,
2013-07-06 12:19:00,85.0,69.6,29.98,WSW,240,11.0,12.0,60,0.00,,---,0.00,VWS V14.01,2013-07-06 16:19:00,
2013-07-06 12:20:00,85.0,70.1,29.98,North,351,4.0,12.0,61,0.00,,---,0.00,VWS V14.01,2013-07-06 16:20:00,
2013-07-06 12:23:00,84.7,69.8,29.98,NW,323,2.0,14.0,61,0.00,,---,0.00,VWS V14.01,2013-07-06 16:23:00,
2013-07-06 12:24:00,84.8,69.9,29.98,SW,219,3.0,14.0,61,0.00,,---,0.00,VWS V14.01,2013-07-06 16:24:00,
2013-07-06 12:25:00,84.8,69.9,29.98,WSW,248,2.0,14.0,61,0.00,,---,0.00,VWS V14.01,2013-07-06 16:25:00,
2013-07-06 12:28:00,84.9,69.5,29.98,West,277,2.0,14.0,60,0.00,,---,0.00,VWS V14.01,2013-07-06 16:28:00,
2013-07-06 12:30:00,85.3,70.3,29.98,WSW,253,4.0,6.0,61,0.00,,---,0.00,VWS V14.01,2013-07-06 16:30:00,
2013-07-06 12:31:00,85.4,69.4,29.98,SW,233,4.0,9.0,59,0.00,,---,0.00,VWS V14.01,2013-07-06 16:31:00,
2013-07-06 12:33:00,85.5,69.6,29.98,West,278,6.0,9.0,59,0.00,,---,0.00,VWS V14.01,2013-07-06 16:33:00,
2013-07-06 12:35:00,85.7,69.7,29.98,West,271,5.0,10.0,59,0.00,,---,0.00,VWS V14.01,2013-07-06 16:35:00,
2013-07-06 12:37:00,85.7,70.2,29.98,SW,218,3.0,10.0,60,0.00,,---,0.00,VWS V14.01,2013-07-06 16:37:00,
2013-07-06 12:39:00,85.7,70.2,29.98,WSW,249,5.0,10.0,60,0.00,,---,0.00,VWS V14.01,2013-07-06 16:39:00,
2013-07-06 12:42:00,85.7,69.7,29.98,WSW,243,6.0,11.0,59,0.00,,---,0.00,VWS V14.01,2013-07-06 16:42:00,
2013-07-06 12:43:00,85.7,69.7,29.98,SW,232,7.0,11.0,59,0.00,,---,0.00,VWS V14.01,2013-07-06 16:43:00,
2013-07-06 12:45:00,85.7,70.2,29.98,WSW,246,5.0,11.0,60,0.00,,---,0.00,VWS V14.01,2013-07-06 16:45:00,
2013-07-06 12:48:00,85.9,70.4,29.98,West,264,10.0,11.0,60,0.00,,---,0.00,VWS V14.01,2013-07-06 16:48:00,
2013-07-06 12:49:00,85.8,69.8,29.98,West,264,4.0,11.0,59,0.00,,---,0.00,VWS V14.01,2013-07-06 16:49:00,
2013-07-06 12:50:00,85.9,70.4,29.99,WSW,257,9.0,11.0,60,0.00,,---,0.00,VWS V14.01,2013-07-06 16:50:00,
2013-07-06 12:54:00,85.7,70.2,29.99,WNW,284,7.0,11.0,60,0.00,,---,0.00,VWS V14.01,2013-07-06 16:54:00,
2013-07-06 12:58:00,85.9,70.4,29.99,SW,224,4.0,11.0,60,0.00,,---,0.00,VWS V14.01,2013-07-06 16:58:00,
2013-07-06 12:59:00,86.0,70.5,29.99,SSE,166,4.0,6.0,60,0.00,,---,0.00,VWS V14.01,2013-07-06 16:59:00,
2013-07-06 13:03:00,86.2,70.2,29.99,NW,308,3.0,11.0,59,0.00,,---,0.00,VWS V14.01,2013-07-06 17:03:00,
2013-07-06 13:04:00,86.2,70.7,29.99,NNW,339,7.0,11.0,60,0.00,,---,0.00,VWS V14.01,2013-07-06 17:04:00,
2013-07-06 13:07:00,85.7,70.7,29.99,WSW,240,5.0,14.0,61,0.00,,---,0.00,VWS V14.01,2013-07-06 17:07:00,
2013-07-06 13:08:00,85.7,71.2,29.99,NNE,12,5.0,14.0,62,0.00,,---,0.00,VWS V14.01,2013-07-06 17:08:00,
2013-07-06 13:10:00,85.8,71.3,29.99,WNW,290,7.0,14.0,62,0.00,,---,0.00,VWS V14.01,2013-07-06 17:10:00,
2013-07-06 13:13:00,85.9,70.9,29.99,NNE,21,6.0,14.0,61,0.00,,---,0.00,VWS V14.01,2013-07-06 17:13:00,
2013-07-06 13:14:00,85.9,70.9,29.99,NNE,27,2.0,14.0,61,0.00,,---,0.00,VWS V14.01,2013-07-06 17:14:00,
2013-07-06 13:16:00,86.2,71.7,29.99,NNW,339,3.0,14.0,62,0.00,,---,0.00,VWS V14.01,2013-07-06 17:16:00,
2013-07-06 13:19:00,86.5,71.5,29.99,North,9,3.0,14.0,61,0.00,,---,0.00,VWS V14.01,2013-07-06 17:19:00,
2013-07-06 13:22:00,86.9,72.3,29.99,WSW,240,2.0,14.0,62,0.00,,---,0.00,VWS V14.01,2013-07-06 17:22:00,
2013-07-06 13:24:00,86.9,71.8,29.98,WSW,253,5.0,14.0,61,0.00,,---,0.00,VWS V14.01,2013-07-06 17:24:00,
2013-07-06 13:26:00,86.6,71.1,29.98,West,274,4.0,14.0,60,0.00,,---,0.00,VWS V14.01,2013-07-06 17:26:00,
2013-07-06 13:28:00,86.3,71.8,29.98,NW,308,2.0,14.0,62,0.00,,---,0.00,VWS V14.01,2013-07-06 17:28:00,
2013-07-06 13:30:00,86.1,71.1,29.98,West,263,5.0,10.0,61,0.00,,---,0.00,VWS V14.01,2013-07-06 17:30:00,
2013-07-06 13:31:00,86.0,71.0,29.98,West,279,4.0,10.0,61,0.00,,---,0.00,VWS V14.01,2013-07-06 17:31:00,
2013-07-06 13:34:00,85.5,71.5,29.98,NW,305,4.0,10.0,63,0.00,,---,0.00,VWS V14.01,2013-07-06 17:34:00,
2013-07-06 13:36:00,85.5,71.9,29.99,WNW,284,7.0,10.0,64,0.00,,---,0.00,VWS V14.01,2013-07-06 17:36:00,
2013-07-06 13:39:00,85.4,71.4,29.99,West,262,3.0,10.0,63,0.00,,---,0.00,VWS V14.01,2013-07-06 17:39:00,
2013-07-06 13:42:00,85.2,71.7,29.99,WNW,296,3.0,10.0,64,0.00,,---,0.00,VWS V14.01,2013-07-06 17:42:00,
2013-07-06 13:43:00,85.2,71.2,29.99,SSW,198,1.0,10.0,63,0.00,,---,0.00,VWS V14.01,2013-07-06 17:43:00,
2013-07-06 13:45:00,85.1,71.1,29.99,West,260,8.0,10.0,63,0.00,,---,0.00,VWS V14.01,2013-07-06 17:45:00,
2013-07-06 13:48:00,84.8,70.8,29.99,NW,316,11.0,11.0,63,0.00,,---,0.00,VWS V14.01,2013-07-06 17:48:00,
2013-07-06 13:51:00,84.5,71.4,29.99,NNW,328,4.0,11.0,65,0.00,,---,0.00,VWS V14.01,2013-07-06 17:51:00,
2013-07-06 13:53:00,84.8,71.7,29.98,NE,49,6.0,11.0,65,0.00,,---,0.00,VWS V14.01,2013-07-06 17:53:00,
2013-07-06 13:56:00,84.8,70.8,29.98,WNW,295,6.0,11.0,63,0.00,,---,0.00,VWS V14.01,2013-07-06 17:56:00,
2013-07-06 13:59:00,84.5,71.0,29.98,WNW,298,1.0,5.0,64,0.00,,---,0.00,VWS V14.01,2013-07-06 17:59:00,
2013-07-06 14:01:00,84.7,71.6,29.98,WNW,302,3.0,7.0,65,0.00,,---,0.00,VWS V14.01,2013-07-06 18:01:00,
2013-07-06 14:02:00,84.8,71.7,29.98,NW,320,1.0,7.0,65,0.00,,---,0.00,VWS V14.01,2013-07-06 18:02:00,
2013-07-06 14:04:00,85.0,71.5,29.98,WSW,246,1.0,7.0,64,0.00,,---,0.00,VWS V14.01,2013-07-06 18:04:00,
2013-07-06 14:06:00,84.9,71.4,29.97,NW,304,3.0,7.0,64,0.00,,---,0.00,VWS V14.01,2013-07-06 18:06:00,
2013-07-06 14:07:00,84.9,71.4,29.97,NNW,335,2.0,7.0,64,0.00,,---,0.00,VWS V14.01,2013-07-06 18:07:00,
2013-07-06 14:10:00,84.4,70.9,29.98,NW,320,3.0,9.0,64,0.00,,---,0.00,VWS V14.01,2013-07-06 18:10:00,
2013-07-06 14:12:00,84.3,70.8,29.98,NW,309,2.0,9.0,64,0.00,,---,0.00,VWS V14.01,2013-07-06 18:12:00,
2013-07-06 14:13:00,84.2,71.6,29.98,West,274,1.0,9.0,66,0.00,,---,0.00,VWS V14.01,2013-07-06 18:13:00,
2013-07-06 14:16:00,84.5,71.9,29.98,West,277,3.0,9.0,66,0.00,,---,0.00,VWS V14.01,2013-07-06 18:16:00,
2013-07-06 14:18:00,84.7,71.6,29.98,NW,321,3.0,9.0,65,0.00,,---,0.00,VWS V14.01,2013-07-06 18:18:00,
2013-07-06 14:21:00,84.7,71.6,29.98,WNW,293,3.0,12.0,65,0.00,,---,0.00,VWS V14.01,2013-07-06 18:21:00,
2013-07-06 14:24:00,84.7,72.1,29.98,NW,307,3.0,12.0,66,0.00,,---,0.00,VWS V14.01,2013-07-06 18:24:00,
2013-07-06 14:26:00,84.7,71.2,29.98,WNW,300,4.0,12.0,64,0.00,,---,0.00,VWS V14.01,2013-07-06 18:26:00,
2013-07-06 14:29:00,84.5,71.0,29.98,SW,236,4.0,7.0,64,0.00,,---,0.00,VWS V14.01,2013-07-06 18:29:00,
2013-07-06 14:31:00,84.4,71.4,29.97,West,264,5.0,7.0,65,0.00,,---,0.00,VWS V14.01,2013-07-06 18:31:00,
2013-07-06 14:32:00,84.3,71.7,29.97,WSW,246,4.0,10.0,66,0.00,,---,0.00,VWS V14.01,2013-07-06 18:32:00,
2013-07-06 14:34:00,84.3,71.3,29.97,West,278,2.0,10.0,65,0.00,,---,0.00,VWS V14.01,2013-07-06 18:34:00,
2013-07-06 14:37:00,84.5,71.9,29.97,West,278,2.0,10.0,66,0.00,,---,0.00,VWS V14.01,2013-07-06 18:37:00,
2013-07-06 14:39:00,84.6,71.1,29.97,NNW,333,4.0,10.0,64,0.00,,---,0.00,VWS V14.01,2013-07-06 18:39:00,
2013-07-06 14:42:00,84.7,70.7,29.97,WSW,242,4.0,10.0,63,0.00,,---,0.00,VWS V14.01,2013-07-06 18:42:00,
2013-07-06 14:45:00,84.7,72.1,29.97,WSW,253,3.0,10.0,66,0.00,,---,0.00,VWS V14.01,2013-07-06 18:45:00,
2013-07-06 14:47:00,84.8,71.7,29.97,WSW,247,6.0,10.0,65,0.00,,---,0.00,VWS V14.01,2013-07-06 18:47:00,
2013-07-06 14:48:00,84.8,70.8,29.97,SW,225,3.0,11.0,63,0.00,,---,0.00,VWS V14.01,2013-07-06 18:48:00,
2013-07-06 14:50:00,84.7,71.2,29.97,WNW,302,2.0,11.0,64,0.00,,---,0.00,VWS V14.01,2013-07-06 18:50:00,
2013-07-06 14:53:00,84.7,71.6,29.97,South,188,3.0,11.0,65,0.00,,---,0.00,VWS V14.01,2013-07-06 18:53:00,
2013-07-06 14:54:00,84.7,71.2,29.97,West,276,7.0,11.0,64,0.00,,---,0.00,VWS V14.01,2013-07-06 18:54:00,
2013-07-06 14:56:00,84.7,70.7,29.97,SW,236,5.0,11.0,63,0.00,,---,0.00,VWS V14.01,2013-07-06 18:56:00,
2013-07-06 14:58:00,84.6,71.1,29.97,South,172,7.0,9.0,64,0.00,,---,0.00,VWS V14.01,2013-07-06 18:58:00,
2013-07-06 15:00:00,84.5,70.5,29.96,West,260,5.0,9.0,63,0.00,,---,0.00,VWS V14.01,2013-07-06 19:00:00,
2013-07-06 15:02:00,84.5,71.0,29.96,WSW,250,8.0,9.0,64,0.00,,---,0.00,VWS V14.01,2013-07-06 19:02:00,
2013-07-06 15:04:00,84.4,70.9,29.96,WSW,250,3.0,9.0,64,0.00,,---,0.00,VWS V14.01,2013-07-06 19:04:00,
2013-07-06 15:06:00,84.3,70.8,29.96,West,269,5.0,9.0,64,0.00,,---,0.00,VWS V14.01,2013-07-06 19:06:00,
2013-07-06 15:07:00,84.1,70.6,29.96,West,279,4.0,9.0,64,0.00,,---,0.00,VWS V14.01,2013-07-06 19:07:00,
2013-07-06 15:10:00,83.9,70.9,29.97,WSW,238,3.0,9.0,65,0.00,,---,0.00,VWS V14.01,2013-07-06 19:10:00,
2013-07-06 15:11:00,84.0,70.5,29.97,WSW,253,4.0,11.0,64,0.00,,---,0.00,VWS V14.01,2013-07-06 19:11:00,
2013-07-06 15:12:00,84.1,71.1,29.96,WNW,284,5.0,11.0,65,0.00,,---,0.00,VWS V14.01,2013-07-06 19:12:00,
2013-07-06 15:16:00,84.2,71.2,29.96,WSW,247,5.0,11.0,65,0.00,,---,0.00,VWS V14.01,2013-07-06 19:16:00,
2013-07-06 15:17:00,84.3,71.3,29.96,WSW,243,2.0,11.0,65,0.00,,---,0.00,VWS V14.01,2013-07-06 19:17:00,
2013-07-06 15:22:00,84.7,71.2,29.96,WNW,284,3.0,11.0,64,0.00,,---,0.00,VWS V14.01,2013-07-06 19:22:00,
2013-07-06 15:23:00,84.7,71.2,29.96,SSW,201,2.0,11.0,64,0.00,,---,0.00,VWS V14.01,2013-07-06 19:23:00,
2013-07-06 15:28:00,85.0,71.5,29.96,SW,223,2.0,11.0,64,0.00,,---,0.00,VWS V14.01,2013-07-06 19:28:00,
2013-07-06 15:31:00,85.5,71.9,29.96,ENE,74,1.0,7.0,64,0.00,,---,0.00,VWS V14.01,2013-07-06 19:31:00,
2013-07-06 15:34:00,85.6,71.6,29.96,WSW,244,4.0,8.0,63,0.00,,---,0.00,VWS V14.01,2013-07-06 19:34:00,
2013-07-06 15:37:00,85.6,71.6,29.96,West,266,4.0,8.0,63,0.00,,---,0.00,VWS V14.01,2013-07-06 19:37:00,
2013-07-06 15:38:00,85.6,71.6,29.96,WNW,284,1.0,8.0,63,0.00,,---,0.00,VWS V14.01,2013-07-06 19:38:00,
2013-07-06 15:39:00,85.4,70.9,29.96,NNW,335,5.0,8.0,62,0.00,,---,0.00,VWS V14.01,2013-07-06 19:39:00,
2013-07-06 15:42:00,85.5,71.0,29.96,West,259,3.0,8.0,62,0.00,,---,0.00,VWS V14.01,2013-07-06 19:42:00,
2013-07-06 15:44:00,85.6,71.6,29.95,SSW,205,3.0,8.0,63,0.00,,---,0.00,VWS V14.01,2013-07-06 19:44:00,
2013-07-06 15:48:00,85.2,71.2,29.95,West,267,4.0,11.0,63,0.00,,---,0.00,VWS V14.01,2013-07-06 19:48:00,
2013-07-06 15:49:00,85.1,71.1,29.96,WNW,290,5.0,11.0,63,0.00,,---,0.00,VWS V14.01,2013-07-06 19:49:00,
2013-07-06 15:50:00,85.1,71.1,29.95,WSW,245,3.0,11.0,63,0.00,,---,0.00,VWS V14.01,2013-07-06 19:50:00,
2013-07-06 15:53:00,85.2,71.7,29.95,WSW,250,4.0,11.0,64,0.00,,---,0.00,VWS V14.01,2013-07-06 19:53:00,
2013-07-06 15:54:00,85.3,71.8,29.95,SW,222,4.0,11.0,64,0.00,,---,0.00,VWS V14.01,2013-07-06 19:54:00,
2013-07-06 15:55:00,85.3,70.8,29.95,WSW,256,9.0,11.0,62,0.00,,---,0.00,VWS V14.01,2013-07-06 19:55:00,
2013-07-06 15:59:00,85.2,70.7,29.95,WNW,294,5.0,7.0,62,0.00,,---,0.00,VWS V14.01,2013-07-06 19:59:00,
2013-07-06 16:00:00,85.2,70.7,29.95,South,187,2.0,7.0,62,0.00,,---,0.00,VWS V14.01,2013-07-06 20:00:00,
2013-07-06 16:06:00,85.7,71.2,29.95,South,179,1.0,9.0,62,0.00,,---,0.00,VWS V14.01,2013-07-06 20:06:00,
2013-07-06 16:07:00,85.8,71.3,29.95,WNW,297,2.0,9.0,62,0.00,,---,0.00,VWS V14.01,2013-07-06 20:07:00,
2013-07-06 16:11:00,86.0,71.0,29.95,WSW,250,9.0,9.0,61,0.00,,---,0.00,VWS V14.01,2013-07-06 20:11:00,
2013-07-06 16:13:00,85.9,70.4,29.95,WSW,255,1.0,9.0,60,0.00,,---,0.00,VWS V14.01,2013-07-06 20:13:00,
2013-07-06 16:16:00,85.8,70.8,29.95,WNW,284,5.0,10.0,61,0.00,,---,0.00,VWS V14.01,2013-07-06 20:16:00,
2013-07-06 16:17:00,85.8,70.8,29.95,NW,320,4.0,10.0,61,0.00,,---,0.00,VWS V14.01,2013-07-06 20:17:00,
2013-07-06 16:19:00,85.8,71.3,29.94,SW,231,10.0,10.0,62,0.00,,---,0.00,VWS V14.01,2013-07-06 20:19:00,
2013-07-06 16:23:00,85.8,70.8,29.94,NW,309,3.0,10.0,61,0.00,,---,0.00,VWS V14.01,2013-07-06 20:23:00,
2013-07-06 16:26:00,86.0,71.0,29.94,West,275,5.0,10.0,61,0.00,,---,0.00,VWS V14.01,2013-07-06 20:26:00,
2013-07-06 16:28:00,86.1,71.1,29.94,SW,226,4.0,10.0,61,0.00,,---,0.00,VWS V14.01,2013-07-06 20:28:00,
2013-07-06 16:29:00,86.1,71.1,29.94,West,267,6.0,7.0,61,0.00,,---,0.00,VWS V14.01,2013-07-06 20:29:00,
2013-07-06 16:31:00,86.1,70.6,29.94,WSW,239,4.0,9.0,60,0.00,,---,0.00,VWS V14.01,2013-07-06 20:31:00,
2013-07-06 16:33:00,86.0,71.0,29.94,WSW,240,8.0,9.0,61,0.00,,---,0.00,VWS V14.01,2013-07-06 20:33:00,
2013-07-06 16:36:00,86.0,71.0,29.94,SW,233,2.0,9.0,61,0.00,,---,0.00,VWS V14.01,2013-07-06 20:36:00,
2013-07-06 16:39:00,86.3,70.8,29.94,WSW,238,7.0,10.0,60,0.00,,---,0.00,VWS V14.01,2013-07-06 20:39:00,
2013-07-06 16:41:00,86.2,70.7,29.94,WNW,297,6.0,10.0,60,0.00,,---,0.00,VWS V14.01,2013-07-06 20:41:00,
2013-07-06 16:42:00,86.2,70.7,29.94,NNW,348,3.0,10.0,60,0.00,,---,0.00,VWS V14.01,2013-07-06 20:42:00,
2013-07-06 16:44:00,86.2,70.7,29.94,WSW,255,4.0,10.0,60,0.00,,---,0.00,VWS V14.01,2013-07-06 20:44:00,
2013-07-06 16:47:00,86.1,70.1,29.94,WSW,238,8.0,10.0,59,0.00,,---,0.00,VWS V14.01,2013-07-06 20:47:00,
2013-07-06 16:48:00,86.1,70.6,29.94,WSW,249,6.0,10.0,60,0.00,,---,0.00,VWS V14.01,2013-07-06 20:48:00,
2013-07-06 16:50:00,86.1,70.6,29.94,NW,304,8.0,10.0,60,0.00,,---,0.00,VWS V14.01,2013-07-06 20:50:00,
2013-07-06 16:54:00,86.1,70.6,29.94,NW,314,6.0,10.0,60,0.00,,---,0.00,VWS V14.01,2013-07-06 20:54:00,
2013-07-06 16:56:00,86.3,70.8,29.94,SW,232,6.0,10.0,60,0.00,,---,0.00,VWS V14.01,2013-07-06 20:56:00,
2013-07-06 16:59:00,86.2,70.7,29.93,West,279,3.0,11.0,60,0.00,,---,0.00,VWS V14.01,2013-07-06 20:59:00,
2013-07-06 17:01:00,85.9,70.4,29.93,West,259,5.0,11.0,60,0.00,,---,0.00,VWS V14.01,2013-07-06 21:01:00,
2013-07-06 17:05:00,85.9,71.4,29.93,WSW,245,3.0,11.0,62,0.00,,---,0.00,VWS V14.01,2013-07-06 21:05:00,
2013-07-06 17:08:00,85.7,71.2,29.93,WSW,247,4.0,11.0,62,0.00,,---,0.00,VWS V14.01,2013-07-06 21:08:00,
2013-07-06 17:10:00,85.6,71.1,29.93,WSW,240,7.0,11.0,62,0.00,,---,0.00,VWS V14.01,2013-07-06 21:10:00,
2013-07-06 17:11:00,85.5,71.0,29.93,WNW,289,1.0,11.0,62,0.00,,---,0.00,VWS V14.01,2013-07-06 21:11:00,
2013-07-06 17:14:00,85.7,70.7,29.93,WNW,286,2.0,11.0,61,0.00,,---,0.00,VWS V14.01,2013-07-06 21:14:00,
2013-07-06 17:15:00,85.7,70.7,29.93,WSW,242,4.0,11.0,61,0.00,,---,0.00,VWS V14.01,2013-07-06 21:15:00,
2013-07-06 17:19:00,85.7,70.7,29.93,WSW,250,8.0,11.0,61,0.00,,---,0.00,VWS V14.01,2013-07-06 21:19:00,
2013-07-06 17:20:00,85.7,70.7,29.93,WNW,293,8.0,11.0,61,0.00,,---,0.00,VWS V14.01,2013-07-06 21:20:00,
2013-07-06 17:21:00,85.6,71.1,29.93,SW,221,4.0,11.0,62,0.00,,---,0.00,VWS V14.01,2013-07-06 21:21:00,
2013-07-06 17:25:00,85.6,71.1,29.93,WNW,295,1.0,11.0,62,0.00,,---,0.00,VWS V14.01,2013-07-06 21:25:00,
2013-07-06 17:26:00,85.6,70.6,29.93,West,276,5.0,11.0,61,0.00,,---,0.00,VWS V14.01,2013-07-06 21:26:00,
2013-07-06 17:30:00,85.5,71.0,29.93,WSW,255,5.0,10.0,62,0.00,,---,0.00,VWS V14.01,2013-07-06 21:30:00,
2013-07-06 17:31:00,85.5,70.5,29.93,WNW,302,5.0,10.0,61,0.00,,---,0.00,VWS V14.01,2013-07-06 21:31:00,
2013-07-06 17:32:00,85.5,70.5,29.93,WSW,250,4.0,10.0,61,0.00,,---,0.00,VWS V14.01,2013-07-06 21:32:00,
2013-07-06 17:36:00,85.7,71.2,29.92,SW,232,6.0,10.0,62,0.00,,---,0.00,VWS V14.01,2013-07-06 21:36:00,
2013-07-06 17:37:00,85.7,71.2,29.92,West,274,6.0,10.0,62,0.00,,---,0.00,VWS V14.01,2013-07-06 21:37:00,
2013-07-06 17:41:00,85.9,70.9,29.92,West,262,5.0,11.0,61,0.00,,---,0.00,VWS V14.01,2013-07-06 21:41:00,
2013-07-06 17:42:00,85.9,70.9,29.92,WSW,240,3.0,11.0,61,0.00,,---,0.00,VWS V14.01,2013-07-06 21:42:00,
2013-07-06 17:46:00,85.9,70.9,29.93,WNW,294,8.0,11.0,61,0.00,,---,0.00,VWS V14.01,2013-07-06 21:46:00,
2013-07-06 17:48:00,85.9,70.9,29.92,West,277,4.0,11.0,61,0.00,,---,0.00,VWS V14.01,2013-07-06 21:48:00,
2013-07-06 17:49:00,85.8,70.3,29.92,WSW,252,6.0,11.0,60,0.00,,---,0.00,VWS V14.01,2013-07-06 21:49:00,
2013-07-06 17:52:00,85.7,70.7,29.92,West,270,5.0,11.0,61,0.00,,---,0.00,VWS V14.01,2013-07-06 21:52:00,
2013-07-06 17:53:00,85.7,70.7,29.92,SSW,196,2.0,11.0,61,0.00,,---,0.00,VWS V14.01,2013-07-06 21:53:00,
2013-07-06 17:54:00,85.8,70.8,29.92,West,260,8.0,11.0,61,0.00,,---,0.00,VWS V14.01,2013-07-06 21:54:00,
2013-07-06 17:58:00,85.6,70.6,29.92,West,266,6.0,11.0,61,0.00,,---,0.00,VWS V14.01,2013-07-06 21:58:00,
2013-07-06 18:00:00,85.5,71.0,29.92,West,269,8.0,8.0,62,0.00,,---,0.00,VWS V14.01,2013-07-06 22:00:00,
2013-07-06 18:03:00,85.4,70.9,29.92,SW,236,6.0,8.0,62,0.00,,---,0.00,VWS V14.01,2013-07-06 22:03:00,
2013-07-06 18:05:00,85.4,70.9,29.93,WSW,243,2.0,8.0,62,0.00,,---,0.00,VWS V14.01,2013-07-06 22:05:00,
2013-07-06 18:08:00,85.4,71.4,29.92,NW,314,4.0,8.0,63,0.00,,---,0.00,VWS V14.01,2013-07-06 22:08:00,
2013-07-06 18:09:00,85.4,71.4,29.92,WNW,296,6.0,8.0,63,0.00,,---,0.00,VWS V14.01,2013-07-06 22:09:00,
2013-07-06 18:12:00,85.3,71.3,29.93,West,274,2.0,8.0,63,0.00,,---,0.00,VWS V14.01,2013-07-06 22:12:00,
2013-07-06 18:14:00,85.3,70.8,29.92,WNW,302,3.0,9.0,62,0.00,,---,0.00,VWS V14.01,2013-07-06 22:14:00,
2013-07-06 18:17:00,85.3,71.3,29.93,WNW,302,4.0,9.0,63,0.00,,---,0.00,VWS V14.01,2013-07-06 22:17:00,
2013-07-06 18:19:00,85.2,71.2,29.93,WNW,293,5.0,9.0,63,0.00,,---,0.00,VWS V14.01,2013-07-06 22:19:00,
2013-07-06 18:24:00,85.3,70.8,29.93,West,266,0.0,9.0,62,0.00,,---,0.00,VWS V14.01,2013-07-06 22:24:00,
2013-07-06 18:25:00,85.4,70.4,29.93,West,277,2.0,9.0,61,0.00,,---,0.00,VWS V14.01,2013-07-06 22:25:00,
2013-07-06 18:29:00,85.5,70.5,29.93,West,278,4.0,4.0,61,0.00,,---,0.00,VWS V14.01,2013-07-06 22:29:00,
2013-07-06 18:30:00,85.5,70.5,29.93,West,262,1.0,4.0,61,0.00,,---,0.00,VWS V14.01,2013-07-06 22:30:00,
2013-07-06 18:32:00,85.5,70.5,29.93,NW,313,1.0,4.0,61,0.00,,---,0.00,VWS V14.01,2013-07-06 22:32:00,
2013-07-06 18:36:00,85.8,70.3,29.93,NW,325,3.0,4.0,60,0.00,,---,0.00,VWS V14.01,2013-07-06 22:36:00,
2013-07-06 18:37:00,86.0,70.0,29.93,NW,318,4.0,4.0,59,0.00,,---,0.00,VWS V14.01,2013-07-06 22:37:00,
2013-07-06 18:41:00,85.9,68.9,29.93,NW,304,0.0,7.0,57,0.00,,---,0.00,VWS V14.01,2013-07-06 22:41:00,
2013-07-06 18:43:00,86.0,69.5,29.93,NE,44,1.0,7.0,58,0.00,,---,0.00,VWS V14.01,2013-07-06 22:43:00,
2013-07-06 18:47:00,86.4,69.4,29.93,WNW,296,2.0,7.0,57,0.00,,---,0.00,VWS V14.01,2013-07-06 22:47:00,
2013-07-06 18:50:00,86.5,69.5,29.93,West,266,1.0,7.0,57,0.00,,---,0.00,VWS V14.01,2013-07-06 22:50:00,
2013-07-06 18:52:00,86.5,69.0,29.93,West,265,1.0,8.0,56,0.00,,---,0.00,VWS V14.01,2013-07-06 22:52:00,
2013-07-06 18:53:00,86.4,68.9,29.93,NW,318,3.0,8.0,56,0.00,,---,0.00,VWS V14.01,2013-07-06 22:53:00,
2013-07-06 18:56:00,86.1,68.6,29.93,WNW,302,5.0,8.0,56,0.00,,---,0.00,VWS V14.01,2013-07-06 22:56:00,
2013-07-06 18:58:00,85.8,68.8,29.93,NW,315,2.0,8.0,57,0.00,,---,0.00,VWS V14.01,2013-07-06 22:58:00,
2013-07-06 18:59:00,85.8,68.8,29.93,WNW,291,6.0,6.0,57,0.00,,---,0.00,VWS V14.01,2013-07-06 22:59:00,
2013-07-06 19:04:00,85.5,69.1,29.93,NW,319,1.0,6.0,58,0.00,,---,0.00,VWS V14.01,2013-07-06 23:04:00,
2013-07-06 19:09:00,85.7,68.7,29.93,NW,304,5.0,9.0,57,0.00,,---,0.00,VWS V14.01,2013-07-06 23:09:00,
2013-07-06 19:11:00,85.4,68.4,29.93,WSW,255,0.0,9.0,57,0.00,,---,0.00,VWS V14.01,2013-07-06 23:11:00,
2013-07-06 19:14:00,85.0,68.6,29.93,NW,323,3.0,9.0,58,0.00,,---,0.00,VWS V14.01,2013-07-06 23:14:00,
2013-07-06 19:15:00,84.9,68.5,29.93,NW,309,4.0,9.0,58,0.00,,---,0.00,VWS V14.01,2013-07-06 23:15:00,
2013-07-06 19:16:00,84.7,68.3,29.93,NW,321,3.0,9.0,58,0.00,,---,0.00,VWS V14.01,2013-07-06 23:16:00,
2013-07-06 19:20:00,84.4,68.5,29.93,West,274,1.0,9.0,59,0.00,,---,0.00,VWS V14.01,2013-07-06 23:20:00,
2013-07-06 19:21:00,84.3,67.9,29.93,WSW,258,2.0,9.0,58,0.00,,---,0.00,VWS V14.01,2013-07-06 23:21:00,
2013-07-06 19:22:00,84.3,68.4,29.93,SW,233,4.0,9.0,59,0.00,,---,0.00,VWS V14.01,2013-07-06 23:22:00,
2013-07-06 19:25:00,83.9,68.1,29.93,West,279,1.0,9.0,59,0.00,,---,0.00,VWS V14.01,2013-07-06 23:25:00,
2013-07-06 19:26:00,83.9,68.1,29.93,West,279,1.0,9.0,59,0.00,,---,0.00,VWS V14.01,2013-07-06 23:26:00,
2013-07-06 19:27:00,83.8,68.0,29.93,West,263,2.0,9.0,59,0.00,,---,0.00,VWS V14.01,2013-07-06 23:27:00,
2013-07-06 19:31:00,83.5,67.7,29.93,WNW,302,3.0,5.0,59,0.00,,---,0.00,VWS V14.01,2013-07-06 23:31:00,
2013-07-06 19:34:00,83.2,67.4,29.93,WSW,238,2.0,5.0,59,0.00,,---,0.00,VWS V14.01,2013-07-06 23:34:00,
2013-07-06 19:36:00,83.0,67.7,29.94,West,280,3.0,5.0,60,0.00,,---,0.00,VWS V14.01,2013-07-06 23:36:00,
2013-07-06 19:37:00,83.0,67.2,29.93,WNW,293,3.0,5.0,59,0.00,,---,0.00,VWS V14.01,2013-07-06 23:37:00,
2013-07-06 19:39:00,82.8,67.0,29.94,NW,323,2.0,6.0,59,0.00,,---,0.00,VWS V14.01,2013-07-06 23:39:00,
2013-07-06 19:41:00,82.7,67.4,29.94,West,277,1.0,6.0,60,0.00,,---,0.00,VWS V14.01,2013-07-06 23:41:00,
2013-07-06 19:43:00,82.6,67.3,29.94,WNW,282,4.0,6.0,60,0.00,,---,0.00,VWS V14.01,2013-07-06 23:43:00,
2013-07-06 19:45:00,82.5,67.2,29.94,WNW,293,7.0,7.0,60,0.00,,---,0.00,VWS V14.01,2013-07-06 23:45:00,
2013-07-06 19:48:00,82.4,67.1,29.94,WNW,296,0.0,7.0,60,0.00,,---,0.00,VWS V14.01,2013-07-06 23:48:00,
2013-07-06 19:51:00,82.3,67.5,29.94,West,273,3.0,7.0,61,0.00,,---,0.00,VWS V14.01,2013-07-06 23:51:00,
2013-07-06 19:53:00,82.1,67.3,29.94,SW,232,2.0,7.0,61,0.00,,---,0.00,VWS V14.01,2013-07-06 23:53:00,
2013-07-06 19:54:00,82.1,67.3,29.94,SW,233,1.0,7.0,61,0.00,,---,0.00,VWS V14.01,2013-07-06 23:54:00,
2013-07-06 19:59:00,81.8,67.5,29.94,WNW,283,2.0,4.0,62,0.00,,---,0.00,VWS V14.01,2013-07-06 23:59:00,
2013-07-06 20:04:00,81.5,67.2,29.94,SSW,207,3.0,7.0,62,0.00,,---,0.00,VWS V14.01,2013-07-07 00:04:00,
2013-07-06 20:05:00,81.5,67.2,29.94,ESE,103,1.0,7.0,62,0.00,,---,0.00,VWS V14.01,2013-07-07 00:05:00,
2013-07-06 20:10:00,81.3,68.0,29.95,WSW,250,0.0,7.0,64,0.00,,---,0.00,VWS V14.01,2013-07-07 00:10:00,
2013-07-06 20:15:00,81.1,67.3,29.95,NW,313,2.0,7.0,63,0.00,,---,0.00,VWS V14.01,2013-07-07 00:15:00,
2013-07-06 20:16:00,81.1,67.3,29.95,NW,313,0.0,7.0,63,0.00,,---,0.00,VWS V14.01,2013-07-07 00:16:00,
2013-07-06 20:20:00,80.9,67.6,29.95,WSW,257,0.0,7.0,64,0.00,,---,0.00,VWS V14.01,2013-07-07 00:20:00,
2013-07-06 20:22:00,80.9,67.6,29.95,West,270,0.0,7.0,64,0.00,,---,0.00,VWS V14.01,2013-07-07 00:22:00,
2013-07-06 20:27:00,80.6,67.8,29.95,NW,318,1.0,7.0,65,0.00,,---,0.00,VWS V14.01,2013-07-07 00:27:00,
2013-07-06 20:28:00,80.6,67.8,29.95,NW,318,0.0,7.0,65,0.00,,---,0.00,VWS V14.01,2013-07-07 00:28:00,
2013-07-06 20:32:00,80.4,67.6,29.95,WSW,243,0.0,4.0,65,0.00,,---,0.00,VWS V14.01,2013-07-07 00:32:00,
2013-07-06 20:33:00,80.4,67.6,29.95,WSW,243,0.0,4.0,65,0.00,,---,0.00,VWS V14.01,2013-07-07 00:33:00,
2013-07-06 20:37:00,80.2,67.4,29.95,West,266,1.0,4.0,65,0.00,,---,0.00,VWS V14.01,2013-07-07 00:37:00,
2013-07-06 20:38:00,80.1,67.7,29.95,WNW,297,1.0,4.0,66,0.00,,---,0.00,VWS V14.01,2013-07-07 00:38:00,
2013-07-06 20:40:00,80.0,67.6,29.95,NW,319,1.0,4.0,66,0.00,,---,0.00,VWS V14.01,2013-07-07 00:40:00,
2013-07-06 20:42:00,79.9,67.5,29.95,NW,324,1.0,4.0,66,0.00,,---,0.00,VWS V14.01,2013-07-07 00:42:00,
2013-07-06 20:43:00,79.9,67.5,29.95,WNW,288,2.0,4.0,66,0.00,,---,0.00,VWS V14.01,2013-07-07 00:43:00,
2013-07-06 20:46:00,79.8,67.4,29.95,West,280,1.0,4.0,66,0.00,,---,0.00,VWS V14.01,2013-07-07 00:46:00,
2013-07-06 20:48:00,79.7,67.3,29.95,WNW,287,0.0,4.0,66,0.00,,---,0.00,VWS V14.01,2013-07-07 00:48:00,
2013-07-06 20:49:00,79.7,67.3,29.95,West,273,1.0,4.0,66,0.00,,---,0.00,VWS V14.01,2013-07-07 00:49:00,
2013-07-06 20:53:00,79.6,67.2,29.95,West,274,0.0,4.0,66,0.00,,---,0.00,VWS V14.01,2013-07-07 00:53:00,
2013-07-06 20:54:00,79.5,67.2,29.95,West,269,1.0,4.0,66,0.00,,---,0.00,VWS V14.01,2013-07-07 00:54:00,
2013-07-06 20:58:00,79.3,67.0,29.95,West,270,0.0,0.0,66,0.00,,---,0.00,VWS V14.01,2013-07-07 00:58:00,
2013-07-06 20:59:00,79.3,67.4,29.95,West,269,0.0,0.0,67,0.00,,---,0.00,VWS V14.01,2013-07-07 00:59:00,
2013-07-06 21:01:00,79.2,67.3,29.95,West,270,0.0,0.0,67,0.00,,---,0.00,VWS V14.01,2013-07-07 01:01:00,
2013-07-06 21:04:00,79.0,67.1,29.95,West,277,0.0,3.0,67,0.00,,---,0.00,VWS V14.01,2013-07-07 01:04:00,
2013-07-06 21:07:00,78.8,66.9,29.95,WSW,252,1.0,3.0,67,0.00,,---,0.00,VWS V14.01,2013-07-07 01:07:00,
2013-07-06 21:10:00,78.6,67.2,29.95,West,259,2.0,3.0,68,0.00,,---,0.00,VWS V14.01,2013-07-07 01:10:00,
2013-07-06 21:12:00,78.5,67.1,29.95,WNW,287,2.0,3.0,68,0.00,,---,0.00,VWS V14.01,2013-07-07 01:12:00,
2013-07-06 21:15:00,78.3,66.9,29.95,WSW,253,0.0,3.0,68,0.00,,---,0.00,VWS V14.01,2013-07-07 01:15:00,
2013-07-06 21:18:00,78.2,66.8,29.95,West,278,0.0,3.0,68,0.00,,---,0.00,VWS V14.01,2013-07-07 01:18:00,
2013-07-06 21:20:00,78.1,67.1,29.95,West,263,1.0,3.0,69,0.00,,---,0.00,VWS V14.01,2013-07-07 01:20:00,
2013-07-06 21:22:00,78.1,67.1,29.95,WSW,246,0.0,3.0,69,0.00,,---,0.00,VWS V14.01,2013-07-07 01:22:00,
2013-07-06 21:23:00,78.1,67.1,29.95,West,267,2.0,3.0,69,0.00,,---,0.00,VWS V14.01,2013-07-07 01:23:00,
2013-07-06 21:27:00,78.0,67.0,29.95,West,270,0.0,3.0,69,0.00,,---,0.00,VWS V14.01,2013-07-07 01:27:00,
2013-07-06 21:28:00,78.0,67.0,29.96,West,271,0.0,0.0,69,0.00,,---,0.00,VWS V14.01,2013-07-07 01:28:00,
2013-07-06 21:32:00,77.8,66.8,29.95,West,271,0.0,0.0,69,0.00,,---,0.00,VWS V14.01,2013-07-07 01:32:00,
2013-07-06 21:34:00,77.8,67.2,29.96,West,271,0.0,1.0,70,0.00,,---,0.00,VWS V14.01,2013-07-07 01:34:00,
2013-07-06 21:36:00,77.7,66.7,29.96,West,271,0.0,1.0,69,0.00,,---,0.00,VWS V14.01,2013-07-07 01:36:00,
2013-07-06 21:38:00,77.6,67.1,29.96,West,271,0.0,1.0,70,0.00,,---,0.00,VWS V14.01,2013-07-07 01:38:00,
2013-07-06 21:40:00,77.5,66.9,29.96,West,271,0.0,1.0,70,0.00,,---,0.00,VWS V14.01,2013-07-07 01:40:00,
2013-07-06 21:41:00,77.5,66.9,29.96,West,271,0.0,1.0,70,0.00,,---,0.00,VWS V14.01,2013-07-07 01:41:00,
2013-07-06 21:43:00,77.4,66.9,29.96,West,271,0.0,1.0,70,0.00,,---,0.00,VWS V14.01,2013-07-07 01:43:00,
2013-07-06 21:45:00,77.2,67.5,29.96,West,271,0.0,1.0,72,0.00,,---,0.00,VWS V14.01,2013-07-07 01:45:00,
2013-07-06 21:47:00,77.1,67.4,29.96,West,271,0.0,1.0,72,0.00,,---,0.00,VWS V14.01,2013-07-07 01:47:00,
2013-07-06 21:48:00,77.0,67.7,29.96,West,271,0.0,1.0,73,0.00,,---,0.00,VWS V14.01,2013-07-07 01:48:00,
2013-07-06 21:52:00,76.8,67.9,29.96,West,274,0.0,1.0,74,0.00,,---,0.00,VWS V14.01,2013-07-07 01:52:00,
2013-07-06 21:54:00,76.6,67.7,29.96,NW,326,1.0,1.0,74,0.00,,---,0.00,VWS V14.01,2013-07-07 01:54:00,
2013-07-06 21:57:00,76.4,67.9,29.96,NNW,328,0.0,1.0,75,0.00,,---,0.00,VWS V14.01,2013-07-07 01:57:00,
2013-07-06 22:00:00,76.2,67.7,29.96,NNW,341,1.0,2.0,75,0.00,,---,0.00,VWS V14.01,2013-07-07 02:00:00,
2013-07-06 22:02:00,75.9,67.8,29.97,NNW,342,2.0,2.0,76,0.00,,---,0.00,VWS V14.01,2013-07-07 02:02:00,
2013-07-06 22:03:00,75.9,67.8,29.97,NNW,340,2.0,3.0,76,0.00,,---,0.00,VWS V14.01,2013-07-07 02:03:00,
2013-07-06 22:07:00,75.3,67.6,29.97,North,353,3.0,3.0,77,0.00,,---,0.00,VWS V14.01,2013-07-07 02:07:00,
2013-07-06 22:08:00,75.2,67.5,29.97,North,349,2.0,3.0,77,0.00,,---,0.00,VWS V14.01,2013-07-07 02:08:00,
2013-07-06 22:09:00,75.0,67.7,29.97,NNW,347,2.0,3.0,78,0.00,,---,0.00,VWS V14.01,2013-07-07 02:09:00,
2013-07-06 22:13:00,74.6,67.3,29.97,NNW,345,2.0,3.0,78,0.00,,---,0.00,VWS V14.01,2013-07-07 02:13:00,
2013-07-06 22:15:00,74.5,67.6,29.97,NNW,343,2.0,3.0,79,0.00,,---,0.00,VWS V14.01,2013-07-07 02:15:00,
2013-07-06 22:18:00,74.4,67.5,29.97,NNW,333,1.0,3.0,79,0.00,,---,0.00,VWS V14.01,2013-07-07 02:18:00,
2013-07-06 22:20:00,74.3,67.4,29.97,NNW,333,1.0,3.0,79,0.00,,---,0.00,VWS V14.01,2013-07-07 02:20:00,
2013-07-06 22:21:00,74.3,67.4,29.97,NNW,333,0.0,3.0,79,0.00,,---,0.00,VWS V14.01,2013-07-07 02:21:00,
2013-07-06 22:23:00,74.2,67.6,29.97,NNW,332,1.0,3.0,80,0.00,,---,0.00,VWS V14.01,2013-07-07 02:23:00,
2013-07-06 22:25:00,74.1,67.5,29.97,NNW,331,1.0,3.0,80,0.00,,---,0.00,VWS V14.01,2013-07-07 02:25:00,
2013-07-06 22:26:00,74.0,67.4,29.97,NNW,332,0.0,3.0,80,0.00,,---,0.00,VWS V14.01,2013-07-07 02:26:00,
2013-07-06 22:29:00,73.9,67.3,29.97,NNW,331,1.0,1.0,80,0.00,,---,0.00,VWS V14.01,2013-07-07 02:29:00,
2013-07-06 22:30:00,73.9,67.3,29.97,NNW,333,0.0,1.0,80,0.00,,---,0.00,VWS V14.01,2013-07-07 02:30:00,
2013-07-06 22:32:00,73.8,67.2,29.97,NNW,328,1.0,1.0,80,0.00,,---,0.00,VWS V14.01,2013-07-07 02:32:00,
2013-07-06 22:34:00,73.8,67.2,29.97,NNW,330,1.0,1.0,80,0.00,,---,0.00,VWS V14.01,2013-07-07 02:34:00,
2013-07-06 22:36:00,73.7,67.5,29.97,NNW,330,1.0,1.0,81,0.00,,---,0.00,VWS V14.01,2013-07-07 02:36:00,
2013-07-06 22:40:00,73.6,67.4,29.97,NNW,333,2.0,2.0,81,0.00,,---,0.00,VWS V14.01,2013-07-07 02:40:00,
2013-07-06 22:41:00,73.4,67.2,29.97,NNW,336,1.0,2.0,81,0.00,,---,0.00,VWS V14.01,2013-07-07 02:41:00,
2013-07-06 22:42:00,73.4,67.2,29.97,NNW,339,2.0,2.0,81,0.00,,---,0.00,VWS V14.01,2013-07-07 02:42:00,
2013-07-06 22:45:00,73.0,66.8,29.97,NNW,337,1.0,2.0,81,0.00,,---,0.00,VWS V14.01,2013-07-07 02:45:00,
2013-07-06 22:46:00,72.9,67.1,29.97,NNW,338,1.0,2.0,82,0.00,,---,0.00,VWS V14.01,2013-07-07 02:46:00,
2013-07-06 22:49:00,72.7,66.9,29.97,NNW,337,1.0,2.0,82,0.00,,---,0.00,VWS V14.01,2013-07-07 02:49:00,
2013-07-06 22:51:00,72.4,66.9,29.97,North,352,2.0,3.0,83,0.00,,---,0.00,VWS V14.01,2013-07-07 02:51:00,
2013-07-06 22:52:00,72.4,66.9,29.97,North,357,3.0,3.0,83,0.00,,---,0.00,VWS V14.01,2013-07-07 02:52:00,
2013-07-06 22:54:00,72.1,66.7,29.97,North,352,3.0,3.0,83,0.00,,---,0.00,VWS V14.01,2013-07-07 02:54:00,
2013-07-06 22:57:00,71.8,66.7,29.97,North,1,2.0,3.0,84,0.00,,---,0.00,VWS V14.01,2013-07-07 02:57:00,
2013-07-06 23:00:00,71.6,66.9,29.97,North,5,3.0,4.0,85,0.00,,---,0.00,VWS V14.01,2013-07-07 03:00:00,
2013-07-06 23:02:00,71.3,66.6,29.97,North,354,2.0,4.0,85,0.00,,---,0.00,VWS V14.01,2013-07-07 03:02:00,
2013-07-06 23:03:00,71.3,66.6,29.97,North,355,2.0,4.0,85,0.00,,---,0.00,VWS V14.01,2013-07-07 03:03:00,
2013-07-06 23:04:00,70.8,66.7,29.97,North,352,0.0,0.0,87,0.00,,---,0.00,VWS V14.01,2013-07-07 03:04:00,
2013-07-06 23:05:00,70.8,66.4,29.97,NNW,345,0.0,0.0,86,0.00,,---,0.00,VWS V14.01,2013-07-07 03:05:00,
2013-07-06 23:06:00,70.7,66.7,29.97,North,350,0.0,0.0,87,0.00,,---,0.00,VWS V14.01,2013-07-07 03:06:00,
2013-07-06 23:07:00,71.2,66.8,29.97,North,354,1.0,4.0,86,0.00,,---,0.00,VWS V14.01,2013-07-07 03:07:00,
2013-07-06 23:08:00,70.6,66.6,29.97,NNW,336,0.0,0.0,87,0.00,,---,0.00,VWS V14.01,2013-07-07 03:08:00,
2013-07-06 23:09:00,71.2,66.8,29.97,North,354,0.0,4.0,86,0.00,,---,0.00,VWS V14.01,2013-07-07 03:09:00,
2013-07-06 23:10:00,70.4,66.3,29.97,NNW,347,0.0,0.0,87,0.00,,---,0.00,VWS V14.01,2013-07-07 03:10:00,
2013-07-06 23:11:00,71.2,66.8,29.97,North,354,0.0,4.0,86,0.00,,---,0.00,VWS V14.01,2013-07-07 03:11:00,
2013-07-06 23:12:00,71.2,66.8,29.97,North,354,0.0,4.0,86,0.00,,---,0.00,VWS V14.01,2013-07-07 03:12:00,
2013-07-06 23:13:00,70.2,66.5,29.97,NNW,340,0.0,0.0,88,0.00,,---,0.00,VWS V14.01,2013-07-07 03:13:00,
2013-07-06 23:14:00,71.1,66.7,29.97,North,354,0.0,4.0,86,0.00,,---,0.00,VWS V14.01,2013-07-07 03:14:00,
2013-07-06 23:15:00,70.1,66.4,29.97,NNW,343,0.0,0.0,88,0.00,,---,0.00,VWS V14.01,2013-07-07 03:15:00,
2013-07-06 23:16:00,70.0,66.3,29.97,NNW,342,0.0,0.0,88,0.00,,---,0.00,VWS V14.01,2013-07-07 03:16:00,
2013-07-06 23:17:00,71.1,66.7,29.97,North,354,0.0,4.0,86,0.00,,---,0.00,VWS V14.01,2013-07-07 03:17:00,
2013-07-06 23:18:00,69.9,66.2,29.97,NNW,340,0.0,0.0,88,0.00,,---,0.00,VWS V14.01,2013-07-07 03:18:00,
2013-07-06 23:19:00,70.9,66.5,29.97,North,354,0.0,4.0,86,0.00,,---,0.00,VWS V14.01,2013-07-07 03:19:00,
2013-07-06 23:20:00,70.7,66.7,29.97,North,354,0.0,4.0,87,0.00,,---,0.00,VWS V14.01,2013-07-07 03:20:00,
2013-07-06 23:21:00,70.0,66.3,29.97,NNW,340,0.0,0.0,88,0.00,,---,0.00,VWS V14.01,2013-07-07 03:21:00,
2013-07-06 23:24:00,70.5,66.8,29.97,NNW,345,0.0,4.0,88,0.00,,---,0.00,VWS V14.01,2013-07-07 03:24:00,
2013-07-06 23:25:00,70.4,66.7,29.97,NNW,348,0.0,4.0,88,0.00,,---,0.00,VWS V14.01,2013-07-07 03:25:00,
2013-07-06 23:26:00,70.7,66.7,29.97,NNW,330,0.0,0.0,87,0.00,,---,0.00,VWS V14.01,2013-07-07 03:26:00,
2013-07-06 23:27:00,70.7,66.7,29.97,NNW,336,0.0,0.0,87,0.00,,---,0.00,VWS V14.01,2013-07-07 03:27:00,
2013-07-06 23:28:00,70.9,66.5,29.97,NNW,336,0.0,0.0,86,0.00,,---,0.00,VWS V14.01,2013-07-07 03:28:00,
2013-07-06 23:30:00,70.4,66.7,29.97,NNW,343,0.0,0.0,88,0.00,,---,0.00,VWS V14.01,2013-07-07 03:30:00,
2013-07-06 23:35:00,70.6,66.9,29.97,NNW,343,0.0,0.0,88,0.00,,---,0.00,VWS V14.01,2013-07-07 03:35:00,
2013-07-06 23:36:00,70.7,67.0,29.97,NNW,343,0.0,0.0,88,0.00,,---,0.00,VWS V14.01,2013-07-07 03:36:00,
2013-07-06 23:40:00,70.9,67.2,29.98,NNW,343,0.0,0.0,88,0.00,,---,0.00,VWS V14.01,2013-07-07 03:40:00,
2013-07-06 23:42:00,70.9,66.8,29.97,NNW,343,0.0,0.0,87,0.00,,---,0.00,VWS V14.01,2013-07-07 03:42:00,
2013-07-06 23:46:00,71.1,67.0,29.98,NNW,342,0.0,0.0,87,0.00,,---,0.00,VWS V14.01,2013-07-07 03:46:00,
2013-07-06 23:47:00,71.1,67.0,29.97,NNW,343,0.0,0.0,87,0.00,,---,0.00,VWS V14.01,2013-07-07 03:47:00,
2013-07-06 23:48:00,71.1,66.7,29.97,NNW,343,0.0,0.0,86,0.00,,---,0.00,VWS V14.01,2013-07-07 03:48:00,
2013-07-06 23:52:00,71.1,66.7,29.98,NNW,345,0.0,0.0,86,0.00,,---,0.00,VWS V14.01,2013-07-07 03:52:00,
2013-07-06 23:53:00,71.1,66.7,29.98,NNW,345,0.0,0.0,86,0.00,,---,0.00,VWS V14.01,2013-07-07 03:53:00,
2013-07-06 23:58:00,71.0,66.6,29.98,NNW,347,0.0,0.0,86,0.00,,---,0.00,VWS V14.01,2013-07-07 03:58:00,
2013-07-06 23:59:00,71.0,66.6,29.98,NNW,347,0.0,0.0,86,0.00,,---,0.00,VWS V14.01,2013-07-07 03:59:00,